K5VW Weather Reports


Display with metric or nautical units.
time (UTC)temp
F
wind
direction
speed
MPH
gust
MPH
rain 1hr
in
rain 24hr
in
rain mn
in
humidity
%
barometer
mb
20260510143955 68 300 18.0 29.0 0.00 0.00 0.00 48 1012.1
20260510143854 68 26 19.0 29.0 0.00 0.00 0.00 48 1012.1
20260510143743 68 331 19.0 30.0 0.00 0.00 0.00 48 1012.1
20260510143638 68 16 19.0 30.0 0.00 0.00 0.00 48 1012.1
20260510143536 68 325 18.0 30.0 0.00 0.00 0.00 48 1012.1
20260510143437 68 332 19.0 30.0 0.00 0.00 0.00 48 1012.1
20260510143339 68 344 18.0 30.0 0.00 0.00 0.00 48 1012.1
20260510143246 68 344 17.0 30.0 0.00 0.00 0.00 48 1012.1
20260510143135 68 336 17.0 30.0 0.00 0.00 0.00 48 1012.1
20260510143036 68 313 17.0 30.0 0.00 0.00 0.00 48 1012.1
20260510142938 68 332 17.0 30.0 0.00 0.00 0.00 48 1012.1
20260510142841 68 18 17.0 30.0 0.00 0.00 0.00 48 1012.2
20260510142748 68 13 16.0 28.0 0.00 0.00 0.00 48 1012.2
20260510142639 68 260 17.0 28.0 0.00 0.00 0.00 48 1011.9
20260510142539 68 46 17.0 28.0 0.00 0.00 0.00 48 1011.9
20260510142500 68 75 17.0 28.0 0.00 0.00 0.00 48 1011.8
20260510142336 68 11 17.0 28.0 0.00 0.00 0.00 48 1011.8
20260510142238 68 327 17.0 28.0 0.00 0.00 0.00 48 1011.8
20260510142134 68 351 17.0 28.0 0.00 0.00 0.00 48 1011.8
20260510142035 68 336 17.0 28.0 0.00 0.00 0.00 48 1011.8
20260510141943 68 317 16.0 28.0 0.00 0.00 0.00 48 1011.8
20260510141832 68 319 16.0 28.0 0.00 0.00 0.00 48 1011.7
20260510141725 68 318 16.0 28.0 0.00 0.00 0.00 48 1011.7
20260510141628 68 16 16.0 28.0 0.00 0.00 0.00 48 1011.7
20260510141520 68 331 15.0 28.0 0.00 0.00 0.00 48 1011.7
20260510141426 68 319 15.0 28.0 0.00 0.00 0.00 48 1011.8
20260510141317 68 355 14.0 28.0 0.00 0.00 0.00 48 1011.8
20260510141220 68 325 15.0 28.0 0.00 0.00 0.00 48 1011.1
20260510141114 68 19 15.0 28.0 0.00 0.00 0.00 48 1011.1
20260510141019 68 66 15.0 28.0 0.00 0.00 0.00 48 1011.1
20260510140916 68 102 16.0 28.0 0.00 0.00 0.00 48 1011.1
20260510140809 68 346 17.0 34.0 0.00 0.00 0.00 48 1011.1
20260510140718 68 351 17.0 34.0 0.00 0.00 0.00 48 1011.1
20260510140616 68 63 17.0 34.0 0.00 0.00 0.00 48 1011.1
20260510140508 68 318 18.0 34.0 0.00 0.00 0.00 48 1011.1
20260510140413 68 338 19.0 34.0 0.00 0.00 0.00 48 1011.1
20260510140313 68 44 19.0 34.0 0.00 0.00 0.00 47 1011.1
20260510140249 68 346 20.0 34.0 0.00 0.00 0.00 47 1011.1
20260510140111 68 336 20.0 34.0 0.00 0.00 0.00 47 1011.1
20260510140014 68 340 20.0 34.0 0.00 0.00 0.00 47 1011.1
20260510135908 68 96 20.0 34.0 0.00 0.00 0.00 46 1011.1
20260510135807 68 319 20.0 31.0 0.00 0.00 0.00 46 1011.2
20260510135652 68 57 20.0 31.0 0.00 0.00 0.00 46 1010.3
20260510135557 68 70 20.0 31.0 0.00 0.00 0.00 46 1010.3
20260510135452 69 45 21.0 32.0 0.00 0.00 0.00 46 1010.5
20260510135353 69 346 21.0 32.0 0.00 0.00 0.00 45 1010.5
20260510135254 69 22 20.0 32.0 0.00 0.00 0.00 45 1010.5
20260510135229 69 324 20.0 32.0 0.00 0.00 0.00 45 1010.6
20260510135054 69 321 19.0 32.0 0.00 0.00 0.00 44 1010.6
20260510134939 69 61 19.0 32.0 0.00 0.00 0.00 44 1010.6
20260510134847 69 290 18.0 32.0 0.00 0.00 0.00 44 1010.6
20260510134801 69 329 18.0 32.0 0.00 0.00 0.00 43 1010.7
20260510134643 70 40 18.0 32.0 0.00 0.00 0.00 43 1010.7
20260510134539 70 15 17.0 32.0 0.00 0.00 0.00 42 1010.7
20260510134442 70 26 16.0 26.0 0.00 0.00 0.00 42 1010.8
20260510134337 70 325 16.0 26.0 0.00 0.00 0.00 42 1010.8
20260510134237 70 320 16.0 26.0 0.00 0.00 0.00 42 1010.8
20260510134138 70 284 16.0 25.0 0.00 0.00 0.00 43 1009.7
20260510134040 70 326 16.0 25.0 0.00 0.00 0.00 44 1009.7
20260510133937 70 324 16.0 25.0 0.00 0.00 0.00 44 1009.7
20260510133836 70 28 16.0 25.0 0.00 0.00 0.00 45 1009.7
20260510133738 70 335 15.0 25.0 0.00 0.00 0.00 46 1009.7
20260510133713 70 93 15.0 25.0 0.00 0.00 0.00 46 1009.7
20260510133530 70 329 15.0 24.0 0.00 0.00 0.00 46 1009.7
20260510133430 70 324 15.0 24.0 0.00 0.00 0.00 46 1009.7
20260510133328 70 333 15.0 28.0 0.00 0.00 0.00 47 1009.7
20260510133236 70 173 15.0 28.0 0.00 0.00 0.00 48 1009.7
20260510133128 70 25 15.0 28.0 0.00 0.00 0.00 48 1009.7
20260510133026 70 341 15.0 28.0 0.00 0.00 0.00 48 1009.7
20260510132918 70 319 15.0 28.0 0.00 0.00 0.00 49 1009.7
20260510132820 70 111 15.0 28.0 0.00 0.00 0.00 49 1009.7
20260510132725 70 342 16.0 28.0 0.00 0.00 0.00 49 1009.0
20260510132712 70 337 16.0 28.0 0.00 0.00 0.00 49 1009.0
20260510132512 70 53 16.0 28.0 0.00 0.00 0.00 49 1009.0
20260510132402 70 349 16.0 28.0 0.00 0.00 0.00 48 1009.0
20260510132310 70 341 16.0 24.0 0.00 0.00 0.00 47 1009.0
20260510132201 70 346 15.0 24.0 0.00 0.00 0.00 46 1009.0
20260510132057 70 53 15.0 24.0 0.00 0.00 0.00 46 1009.0
20260510131955 70 349 16.0 24.0 0.00 0.00 0.00 46 1009.0
20260510131851 70 342 16.0 24.0 0.00 0.00 0.00 46 1009.0
20260510131751 70 333 16.0 24.0 0.00 0.00 0.00 45 1009.0
20260510131654 70 341 16.0 24.0 0.00 0.00 0.00 44 1009.0
20260510131551 70 20 16.0 24.0 0.00 0.00 0.00 44 1009.0
20260510131459 70 9 15.0 24.0 0.00 0.00 0.00 43 1009.0
20260510131356 70 325 16.0 24.0 0.00 0.00 0.00 41 1009.0
20260510131253 70 343 15.0 24.0 0.00 0.00 0.00 41 1009.0
20260510131147 70 14 15.0 24.0 0.00 0.00 0.00 41 1007.9
20260510131050 70 0 16.0 30.0 0.00 0.00 0.00 40 1007.9
20260510130947 70 315 15.0 30.0 0.00 0.00 0.00 40 1007.9
20260510130836 70 309 15.0 30.0 0.00 0.00 0.00 39 1007.9
20260510130740 70 319 15.0 30.0 0.00 0.00 0.00 39 1007.9
20260510130642 70 327 14.0 30.0 0.00 0.00 0.00 39 1007.9
20260510130542 70 272 14.0 30.0 0.00 0.00 0.00 38 1007.9
20260510130445 70 277 13.0 30.0 0.00 0.00 0.00 37 1007.9
20260510130339 70 39 11.0 30.0 0.00 0.00 0.00 36 1007.8
20260510130325 70 306 11.0 30.0 0.00 0.00 0.00 36 1007.8
20260510130253 70 306 11.0 30.0 0.00 0.00 0.00 36 1007.8
20260510130141 70 319 11.0 30.0 0.00 0.00 0.00 36 1007.8
20260510130039 70 313 10.0 22.0 0.00 0.00 0.00 35 1007.8
20260510125933 70 261 10.0 21.0 0.00 0.00 0.00 34 1007.8
20260510125833 69 343 10.0 18.0 0.00 0.00 0.00 34 1007.7
20260510125733 69 316 9.0 18.0 0.00 0.00 0.00 34 1007.5
20260510125644 69 298 9.0 18.0 0.00 0.00 0.00 34 1007.5
20260510125542 69 331 9.0 18.0 0.00 0.00 0.00 34 1007.4
20260510125433 69 19 9.0 18.0 0.00 0.00 0.00 34 1007.4
20260510125332 68 317 9.0 18.0 0.00 0.00 0.00 35 1007.2
20260510125232 68 330 8.0 18.0 0.00 0.00 0.00 35 1007.2
20260510125136 68 336 8.0 15.0 0.00 0.00 0.00 35 1007.2
20260510125038 68 337 8.0 15.0 0.00 0.00 0.00 35 1007.1
20260510124940 67 296 7.0 14.0 0.00 0.00 0.00 35 1007.0
20260510124835 67 315 7.0 13.0 0.00 0.00 0.00 35 1007.0
20260510124805 67 336 6.0 13.0 0.00 0.00 0.00 35 1006.9
20260510124626 67 331 6.0 13.0 0.00 0.00 0.00 35 1006.9
20260510124530 67 13 5.0 13.0 0.00 0.00 0.00 36 1006.9
20260510124435 66 304 5.0 12.0 0.00 0.00 0.00 36 1006.8
20260510124327 66 295 5.0 12.0 0.00 0.00 0.00 36 1006.8
20260510124228 66 346 5.0 12.0 0.00 0.00 0.00 36 1006.5
20260510124133 66 323 5.0 12.0 0.00 0.00 0.00 36 1006.4
20260510124022 66 344 5.0 12.0 0.00 0.00 0.00 36 1006.4
20260510123924 66 311 5.0 11.0 0.00 0.00 0.00 37 1006.4
20260510123827 65 304 5.0 11.0 0.00 0.00 0.00 37 1006.2
20260510123713 65 300 5.0 11.0 0.00 0.00 0.00 37 1006.2
20260510123619 65 296 5.0 11.0 0.00 0.00 0.00 37 1006.2
20260510123523 65 318 5.0 11.0 0.00 0.00 0.00 38 1006.1
20260510123425 65 311 5.0 11.0 0.00 0.00 0.00 38 1006.1
20260510123313 65 337 5.0 11.0 0.00 0.00 0.00 39 1006.1
20260510123210 64 306 5.0 11.0 0.00 0.00 0.00 39 1006.0
20260510123110 64 307 4.0 11.0 0.00 0.00 0.00 40 1006.0
20260510123022 64 302 4.0 11.0 0.00 0.00 0.00 41 1006.0
20260510122910 64 320 3.0 11.0 0.00 0.00 0.00 41 1006.0
20260510122816 64 336 3.0 11.0 0.00 0.00 0.00 41 1005.9
20260510122708 64 307 2.0 11.0 0.00 0.00 0.00 41 1005.2
20260510122610 63 348 2.0 11.0 0.00 0.00 0.00 41 1005.1
20260510122506 63 302 1.0 11.0 0.00 0.00 0.00 41 1005.0
20260510122411 63 297 1.0 8.0 0.00 0.00 0.00 42 1005.0
20260510122306 63 315 0.0 4.0 0.00 0.00 0.00 43 1005.0
20260510122239 63 339 0.0 4.0 0.00 0.00 0.00 42 1005.0
20260510122205 63 339 0.0 4.0 0.00 0.00 0.00 42 1005.0
20260510122104 62 321 0.0 2.0 0.00 0.00 0.00 42 1004.9
20260510121956 62 38 0.0 2.0 0.00 0.00 0.00 41 1004.9
20260510121843 63 319 0.0 2.0 0.00 0.00 0.00 41 1005.0
20260510121743 63 331 0.0 2.0 0.00 0.00 0.00 41 1005.0
20260510121637 63 330 0.0 2.0 0.00 0.00 0.00 41 1005.0
20260510121536 63 343 0.0 4.0 0.00 0.00 0.00 41 1005.0
20260510121425 63 307 0.0 4.0 0.00 0.00 0.00 40 1005.0
20260510121329 63 49 0.0 4.0 0.00 0.00 0.00 39 1005.1
20260510121228 63 332 0.0 4.0 0.00 0.00 0.00 39 1004.6
20260510121108 63 279 0.0 4.0 0.00 0.00 0.00 39 1004.6
20260510121022 64 279 0.0 4.0 0.00 0.00 0.00 39 1004.6
20260510120912 64 279 0.0 4.0 0.00 0.00 0.00 39 1004.6
20260510120812 64 279 0.0 4.0 0.00 0.00 0.00 39 1004.6
20260510120706 64 279 0.0 4.0 0.00 0.00 0.00 39 1004.6
20260510120605 64 309 0.0 4.0 0.00 0.00 0.00 39 1004.7
20260510120511 64 262 0.0 2.0 0.00 0.00 0.00 39 1004.7
20260510120406 64 262 0.0 2.0 0.00 0.00 0.00 38 1004.7
20260510120300 64 256 0.0 2.0 0.00 0.00 0.00 38 1004.7
20260510120151 64 306 0.0 2.0 0.00 0.00 0.00 39 1004.7
20260510120051 63 304 0.0 2.0 0.00 0.00 0.00 39 1004.6
20260510115948 63 302 0.0 2.0 0.00 0.00 0.00 39 1004.6
20260510115836 63 308 0.0 2.0 0.00 0.00 0.00 40 1004.6
20260510115735 63 274 0.0 1.0 0.00 0.00 0.00 40 1004.6
20260510115631 63 268 0.0 1.0 0.00 0.00 0.00 39 1004.1
20260510115528 64 267 0.0 1.0 0.00 0.00 0.00 39 1004.3
20260510115418 64 254 0.0 1.0 0.00 0.00 0.00 39 1004.3
20260510115311 64 254 0.0 1.0 0.00 0.00 0.00 39 1004.3
20260510115213 64 254 0.0 1.0 0.00 0.00 0.00 39 1004.3
20260510115113 64 248 0.0 1.0 0.00 0.00 0.00 39 1004.3
20260510115015 64 273 0.0 0.0 0.00 0.00 0.00 38 1004.3
20260510114915 64 273 0.0 1.0 0.00 0.00 0.00 38 1004.3
20260510114813 64 273 0.0 1.0 0.00 0.00 0.00 39 1004.4
20260510114706 64 273 0.0 1.0 0.00 0.00 0.00 38 1004.4
20260510114622 64 273 1.0 6.0 0.00 0.00 0.00 38 1004.4
20260510114510 64 273 1.0 10.0 0.00 0.00 0.00 38 1004.4
20260510114412 64 273 2.0 13.0 0.00 0.00 0.00 38 1004.4
20260510114250 64 273 3.0 13.0 0.00 0.00 0.00 38 1004.4
20260510114147 64 273 3.0 13.0 0.00 0.00 0.00 38 1003.7
20260510114039 64 273 3.0 13.0 0.00 0.00 0.00 38 1003.6
20260510113938 64 296 3.0 13.0 0.00 0.00 0.00 39 1003.6
20260510113837 64 296 3.0 13.0 0.00 0.00 0.00 39 1003.6
20260510113740 64 298 3.0 13.0 0.00 0.00 0.00 39 1003.6
20260510113612 64 299 3.0 13.0 0.00 0.00 0.00 39 1003.6
20260510113512 64 292 2.0 13.0 0.00 0.00 0.00 39 1003.7
20260510113414 64 316 1.0 12.0 0.00 0.00 0.00 38 1003.7
20260510113312 64 284 0.0 9.0 0.00 0.00 0.00 37 1003.6
20260510113212 64 283 0.0 3.0 0.00 0.00 0.00 37 1003.6
20260510113116 64 279 0.0 2.0 0.00 0.00 0.00 37 1003.7
20260510113013 64 238 0.0 2.0 0.00 0.00 0.00 37 1003.7
20260510112911 65 145 0.0 2.0 0.00 0.00 0.00 37 1003.8
20260510112813 65 137 0.0 2.0 0.00 0.00 0.00 36 1003.8
20260510112707 65 151 1.0 4.0 0.00 0.00 0.00 36 1003.6
20260510112608 65 273 1.0 6.0 0.00 0.00 0.00 35 1003.6
20260510112501 65 269 1.0 6.0 0.00 0.00 0.00 35 1003.6
20260510112402 65 209 1.0 6.0 0.00 0.00 0.00 35 1003.7
20260510112255 65 248 1.0 6.0 0.00 0.00 0.00 35 1003.7
20260510112152 65 262 1.0 6.0 0.00 0.00 0.00 35 1003.7
20260510112046 65 280 1.0 6.0 0.00 0.00 0.00 34 1003.8
20260510111940 65 273 1.0 6.0 0.00 0.00 0.00 34 1003.8
20260510111844 65 273 1.0 6.0 0.00 0.00 0.00 34 1003.8
20260510111727 66 282 1.0 6.0 0.00 0.00 0.00 34 1003.8
20260510111623 66 289 0.0 4.0 0.00 0.00 0.00 34 1003.8
20260510111522 66 292 0.0 2.0 0.00 0.00 0.00 34 1003.8
20260510111414 66 329 0.0 2.0 0.00 0.00 0.00 34 1003.8
20260510111309 66 329 0.0 2.0 0.00 0.00 0.00 34 1003.8
20260510111216 66 328 0.0 2.0 0.00 0.00 0.00 34 1003.9
20260510111107 66 333 0.0 2.0 0.00 0.00 0.00 33 1003.9
20260510111011 66 38 0.0 2.0 0.00 0.00 0.00 33 1003.9
20260510110911 66 109 0.0 2.0 0.00 0.00 0.00 34 1003.9
20260510110810 66 113 0.0 2.0 0.00 0.00 0.00 33 1003.9
20260510110710 66 102 0.0 4.0 0.00 0.00 0.00 33 1003.9
20260510110551 66 139 0.0 4.0 0.00 0.00 0.00 33 1003.9
20260510110448 66 153 0.0 4.0 0.00 0.00 0.00 33 1003.9
20260510110344 66 146 0.0 4.0 0.00 0.00 0.00 33 1003.9
20260510110246 66 157 0.0 4.0 0.00 0.00 0.00 33 1003.9
20260510110127 66 111 0.0 4.0 0.00 0.00 0.00 33 1004.0
20260510110013 66 169 0.0 4.0 0.00 0.00 0.00 33 1004.0
20260510105911 66 102 0.0 4.0 0.00 0.00 0.00 33 1004.0
20260510105810 66 117 0.0 4.0 0.00 0.00 0.00 32 1004.0
20260510105711 66 117 0.0 1.0 0.00 0.00 0.00 32 1004.3
20260510105609 67 136 0.0 1.0 0.00 0.00 0.00 33 1004.3
20260510105513 67 119 0.0 1.0 0.00 0.00 0.00 33 1004.3
20260510105411 67 90 0.0 1.0 0.00 0.00 0.00 33 1004.3
20260510105310 67 91 0.0 1.0 0.00 0.00 0.00 33 1004.4
20260510105158 67 91 0.0 1.0 0.00 0.00 0.00 33 1004.4
20260510105038 67 96 0.0 1.0 0.00 0.00 0.00 33 1004.4
20260510104934 67 117 0.0 1.0 0.00 0.00 0.00 33 1004.4
20260510104835 67 113 0.0 1.0 0.00 0.00 0.00 33 1004.4
20260510104717 67 207 0.0 1.0 0.00 0.00 0.00 33 1004.4
20260510104622 67 230 0.0 1.0 0.00 0.00 0.00 32 1004.4
20260510104515 67 230 0.0 0.0 0.00 0.00 0.00 32 1004.4
20260510104414 67 231 0.0 0.0 0.00 0.00 0.00 32 1004.4
20260510104311 67 200 0.0 1.0 0.00 0.00 0.00 32 1004.4
20260510104212 67 160 0.0 1.0 0.00 0.00 0.00 32 1003.8
20260510104111 67 159 0.0 2.0 0.00 0.00 0.00 32 1003.8
20260510104012 67 160 0.0 2.0 0.00 0.00 0.00 33 1003.9
20260510103911 67 166 0.0 4.0 0.00 0.00 0.00 33 1003.9
20260510103809 67 162 0.0 4.0 0.00 0.00 0.00 33 1003.9
20260510103649 67 120 0.0 4.0 0.00 0.00 0.00 33 1003.9
20260510103543 67 119 0.0 4.0 0.00 0.00 0.00 32 1003.9
20260510103443 67 110 0.0 4.0 0.00 0.00 0.00 33 1003.9
20260510103348 67 101 0.0 4.0 0.00 0.00 0.00 33 1003.9
20260510103236 67 101 0.0 4.0 0.00 0.00 0.00 33 1003.9
20260510103144 67 69 0.0 4.0 0.00 0.00 0.00 33 1003.9
20260510103042 68 44 0.0 4.0 0.00 0.00 0.00 33 1003.9
20260510102938 68 53 0.0 2.0 0.00 0.00 0.00 32 1003.9
20260510102837 68 80 0.0 1.0 0.00 0.00 0.00 32 1004.0
20260510102734 68 80 0.0 2.0 0.00 0.00 0.00 33 1003.9
20260510102632 68 80 0.0 2.0 0.00 0.00 0.00 33 1003.9
20260510102529 68 80 0.0 2.0 0.00 0.00 0.00 32 1003.9
20260510102423 68 80 0.0 2.0 0.00 0.00 0.00 31 1003.9
20260510102319 68 80 0.0 2.0 0.00 0.00 0.00 31 1004.0
20260510102215 68 80 0.0 2.0 0.00 0.00 0.00 31 1004.0
20260510102112 68 100 0.0 2.0 0.00 0.00 0.00 31 1004.0
20260510102023 68 82 0.0 2.0 0.00 0.00 0.00 31 1004.0
20260510101916 68 109 0.0 2.0 0.00 0.00 0.00 30 1004.0
20260510101813 68 108 1.0 4.0 0.00 0.00 0.00 30 1004.0
20260510101703 68 107 1.0 10.0 0.00 0.00 0.00 30 1004.0
20260510101605 69 82 1.0 10.0 0.00 0.00 0.00 30 1004.0
20260510101500 69 175 1.0 10.0 0.00 0.00 0.00 30 1004.0
20260510101336 69 175 1.0 10.0 0.00 0.00 0.00 30 1004.0
20260510101245 69 175 1.0 10.0 0.00 0.00 0.00 29 1004.0
20260510101141 69 175 1.0 10.0 0.00 0.00 0.00 29 1003.5
20260510101037 69 197 1.0 10.0 0.00 0.00 0.00 29 1003.5
20260510100939 69 312 1.0 10.0 0.00 0.00 0.00 30 1003.5
20260510100838 69 11 1.0 10.0 0.00 0.00 0.00 30 1003.5
20260510100731 69 86 0.0 7.0 0.00 0.00 0.00 30 1003.5
20260510100628 69 48 0.0 5.0 0.00 0.00 0.00 29 1003.6
20260510100519 69 22 0.0 1.0 0.00 0.00 0.00 29 1003.6
20260510100412 69 76 0.0 3.0 0.00 0.00 0.00 29 1003.6
20260510100313 69 89 0.0 3.0 0.00 0.00 0.00 30 1003.6
20260510100212 69 103 0.0 5.0 0.00 0.00 0.00 30 1003.6
20260510100114 69 67 0.0 5.0 0.00 0.00 0.00 30 1003.6
20260510100008 69 0 0.0 5.0 0.00 0.00 0.00 30 1003.6
20260510095905 69 355 0.0 5.0 0.00 0.00 0.00 29 1003.6
20260510095737 69 98 0.0 5.0 0.00 0.00 0.00 28 1003.6
20260510095650 69 97 0.0 5.0 0.00 0.00 0.00 29 1003.6
20260510095540 69 100 0.0 5.0 0.00 0.00 0.00 29 1003.6
20260510095445 69 119 0.0 5.0 0.00 0.00 0.00 29 1003.6
20260510095345 69 129 0.0 5.0 0.00 0.00 0.00 29 1003.6
20260510095243 69 135 0.0 2.0 0.00 0.00 0.00 30 1003.6
20260510095139 69 113 0.0 1.0 0.00 0.00 0.00 30 1003.6
20260510095040 69 141 0.0 1.0 0.00 0.00 0.00 30 1003.6
20260510094935 69 132 0.0 1.0 0.00 0.00 0.00 29 1003.6
20260510094816 69 233 0.0 1.0 0.00 0.00 0.00 30 1003.6
20260510094715 69 248 0.0 1.0 0.00 0.00 0.00 29 1003.6
20260510094600 69 248 0.0 2.0 0.00 0.00 0.00 29 1003.6
20260510094443 69 250 1.0 4.0 0.00 0.00 0.00 29 1003.6
20260510094415 69 240 1.0 4.0 0.00 0.00 0.00 30 1003.6
20260510094239 69 240 1.0 4.0 0.00 0.00 0.00 30 1003.6
20260510094138 69 253 1.0 4.0 0.00 0.00 0.00 30 1003.5
20260510094042 69 242 1.0 4.0 0.00 0.00 0.00 30 1003.5
20260510093940 69 82 1.0 4.0 0.00 0.00 0.00 30 1003.6
20260510093828 69 81 1.0 4.0 0.00 0.00 0.00 30 1003.6
20260510093715 70 73 1.0 4.0 0.00 0.00 0.00 30 1003.6
20260510093626 70 79 1.0 4.0 0.00 0.00 0.00 30 1003.6
20260510093515 70 72 1.0 4.0 0.00 0.00 0.00 28 1003.6
20260510093442 70 65 0.0 4.0 0.00 0.00 0.00 28 1003.6
20260510093310 70 115 0.0 4.0 0.00 0.00 0.00 28 1003.7
20260510093212 70 115 1.0 4.0 0.00 0.00 0.00 28 1003.6
20260510093112 70 136 1.0 4.0 0.00 0.00 0.00 28 1003.7
20260510093004 70 163 1.0 4.0 0.00 0.00 0.00 28 1003.7
20260510092846 70 169 1.0 6.0 0.00 0.00 0.00 27 1003.7
20260510092744 70 173 1.0 6.0 0.00 0.00 0.00 27 1003.7
20260510092650 70 136 2.0 6.0 0.00 0.00 0.00 28 1003.5
20260510092538 70 158 1.0 6.0 0.00 0.00 0.00 28 1003.5
20260510092438 70 192 2.0 6.0 0.00 0.00 0.00 28 1003.6
20260510092342 70 228 2.0 6.0 0.00 0.00 0.00 28 1003.6
20260510092315 70 247 2.0 6.0 0.00 0.00 0.00 28 1003.6
20260510092244 70 247 2.0 6.0 0.00 0.00 0.00 28 1003.6
20260510092135 70 244 2.0 6.0 0.00 0.00 0.00 28 1003.6
20260510092047 70 248 2.0 6.0 0.00 0.00 0.00 28 1003.6
20260510091947 70 227 2.0 6.0 0.00 0.00 0.00 28 1003.6
20260510091843 70 258 2.0 6.0 0.00 0.00 0.00 28 1003.6
20260510091738 70 255 1.0 5.0 0.00 0.00 0.00 28 1003.6
20260510091639 70 245 1.0 2.0 0.00 0.00 0.00 28 1003.7
20260510091538 70 211 1.0 2.0 0.00 0.00 0.00 27 1003.6
20260510091439 70 193 1.0 2.0 0.00 0.00 0.00 27 1003.6
20260510091334 70 210 1.0 2.0 0.00 0.00 0.00 27 1003.6
20260510091231 70 180 1.0 2.0 0.00 0.00 0.00 27 1003.3
20260510091130 70 192 0.0 2.0 0.00 0.00 0.00 27 1003.3
20260510091031 70 192 0.0 2.0 0.00 0.00 0.00 27 1003.3
20260510090930 70 192 0.0 2.0 0.00 0.00 0.00 27 1003.3
20260510090825 70 202 0.0 2.0 0.00 0.00 0.00 27 1003.3
20260510090723 70 168 0.0 1.0 0.00 0.00 0.00 28 1003.3
20260510090619 70 165 0.0 1.0 0.00 0.00 0.00 28 1003.3
20260510090516 70 106 0.0 1.0 0.00 0.00 0.00 28 1003.3
20260510090410 70 98 0.0 1.0 0.00 0.00 0.00 29 1003.3
20260510090314 70 78 0.0 1.0 0.00 0.00 0.00 29 1003.3
20260510090213 70 78 0.0 1.0 0.00 0.00 0.00 29 1003.3
20260510090110 70 108 0.0 0.0 0.00 0.00 0.00 29 1003.3
20260510090018 70 143 0.0 0.0 0.00 0.00 0.00 28 1003.3
20260510085913 70 144 0.0 1.0 0.00 0.00 0.00 28 1003.3
20260510085814 71 144 0.0 1.0 0.00 0.00 0.00 27 1003.3
20260510085656 71 144 0.0 1.0 0.00 0.00 0.00 27 1003.0
20260510085540 71 141 0.0 5.0 0.00 0.00 0.00 27 1003.1
20260510085437 71 141 0.0 5.0 0.00 0.00 0.00 27 1003.1
20260510085342 71 141 0.0 5.0 0.00 0.00 0.00 27 1003.1
20260510085238 71 141 0.0 5.0 0.00 0.00 0.00 27 1003.3
20260510085214 71 141 0.0 5.0 0.00 0.00 0.00 27 1003.3
20260510085039 71 140 0.0 5.0 0.00 0.00 0.00 26 1003.3
20260510084938 71 141 0.0 5.0 0.00 0.00 0.00 26 1003.3
20260510084842 71 152 0.0 5.0 0.00 0.00 0.00 26 1003.3
20260510084741 72 145 1.0 5.0 0.00 0.00 0.00 26 1003.4
20260510084636 72 132 1.0 5.0 0.00 0.00 0.00 26 1003.4
20260510084536 72 124 1.0 5.0 0.00 0.00 0.00 26 1003.4
20260510084441 72 123 1.0 5.0 0.00 0.00 0.00 26 1003.4
20260510084338 72 78 1.0 5.0 0.00 0.00 0.00 26 1003.4
20260510084235 72 134 1.0 5.0 0.00 0.00 0.00 25 1003.6
20260510084130 72 121 1.0 5.0 0.00 0.00 0.00 25 1003.6
20260510084026 72 143 2.0 5.0 0.00 0.00 0.00 25 1003.6
20260510083910 72 178 2.0 5.0 0.00 0.00 0.00 25 1003.6
20260510083801 72 186 2.0 5.0 0.00 0.00 0.00 25 1003.6
20260510083702 72 173 2.0 5.0 0.00 0.00 0.00 26 1003.6
20260510083606 72 173 2.0 5.0 0.00 0.00 0.00 26 1003.6
20260510083500 72 189 2.0 5.0 0.00 0.00 0.00 26 1003.6
20260510083402 72 185 2.0 5.0 0.00 0.00 0.00 26 1003.6
20260510083251 72 193 2.0 5.0 0.00 0.00 0.00 26 1003.6
20260510083149 72 180 2.0 5.0 0.00 0.00 0.00 26 1003.6
20260510083048 72 190 2.0 5.0 0.00 0.00 0.00 26 1003.6
20260510082941 72 189 2.0 5.0 0.00 0.00 0.00 26 1003.6
20260510082845 72 214 2.0 5.0 0.00 0.00 0.00 26 1003.6
20260510082742 72 214 2.0 5.0 0.00 0.00 0.00 26 1003.6
20260510082642 72 217 2.0 5.0 0.00 0.00 0.00 26 1003.7
20260510082539 72 205 2.0 5.0 0.00 0.00 0.00 26 1003.6
20260510082441 72 186 2.0 5.0 0.00 0.00 0.00 26 1003.6
20260510082340 72 202 2.0 5.0 0.00 0.00 0.00 27 1003.7
20260510082238 72 196 2.0 5.0 0.00 0.00 0.00 27 1003.7
20260510082137 72 200 2.0 5.0 0.00 0.00 0.00 26 1003.7
20260510082035 72 173 1.0 5.0 0.00 0.00 0.00 26 1003.7
20260510081931 72 200 1.0 4.0 0.00 0.00 0.00 26 1003.7
20260510081831 72 207 1.0 4.0 0.00 0.00 0.00 26 1003.7
20260510081728 72 209 0.0 4.0 0.00 0.00 0.00 26 1003.7
20260510081630 72 190 0.0 4.0 0.00 0.00 0.00 26 1003.7
20260510081522 72 170 0.0 4.0 0.00 0.00 0.00 25 1003.7
20260510081427 72 200 0.0 2.0 0.00 0.00 0.00 26 1003.7
20260510081326 72 129 0.0 1.0 0.00 0.00 0.00 26 1003.7
20260510081220 72 194 0.0 1.0 0.00 0.00 0.00 26 1004.0
20260510081123 72 231 0.0 1.0 0.00 0.00 0.00 26 1004.1
20260510081012 72 232 0.0 1.0 0.00 0.00 0.00 26 1004.1
20260510080915 72 202 0.0 1.0 0.00 0.00 0.00 27 1004.1
20260510080813 72 211 0.0 1.0 0.00 0.00 0.00 27 1004.1
20260510080706 72 212 0.0 1.0 0.00 0.00 0.00 27 1004.1
20260510080613 72 221 0.0 2.0 0.00 0.00 0.00 26 1004.1
20260510080509 72 222 0.0 4.0 0.00 0.00 0.00 26 1004.1
20260510080404 72 201 1.0 4.0 0.00 0.00 0.00 26 1004.1
20260510080247 72 198 1.0 5.0 0.00 0.00 0.00 26 1004.1
20260510080150 72 224 1.0 5.0 0.00 0.00 0.00 26 1004.1
20260510080037 72 227 1.0 5.0 0.00 0.00 0.00 26 1004.1
20260510075941 72 221 1.0 5.0 0.00 0.00 0.00 26 1004.1
20260510075839 73 221 1.0 5.0 0.00 0.00 0.00 26 1004.3
20260510075733 72 211 1.0 5.0 0.00 0.00 0.00 26 1004.1
20260510075638 72 218 1.0 5.0 0.00 0.00 0.00 26 1004.0
20260510075537 72 187 0.0 5.0 0.00 0.00 0.00 26 1003.9
20260510075433 72 176 0.0 5.0 0.00 0.00 0.00 26 1003.9
20260510075338 72 114 0.0 4.0 0.00 0.00 0.00 26 1003.9
20260510075231 72 100 0.0 2.0 0.00 0.00 0.00 27 1003.9
20260510075132 72 119 0.0 0.0 0.00 0.00 0.00 27 1003.9
20260510075021 72 242 0.0 0.0 0.00 0.00 0.00 27 1004.0
20260510074914 72 242 0.0 0.0 0.00 0.00 0.00 27 1004.0
20260510074755 72 232 0.0 0.0 0.00 0.00 0.00 26 1004.0
20260510074642 72 232 0.0 0.0 0.00 0.00 0.00 26 1004.0
20260510074539 72 232 0.0 0.0 0.00 0.00 0.00 26 1004.0
20260510074439 73 232 0.0 0.0 0.00 0.00 0.00 26 1004.0
20260510074336 73 147 0.0 0.0 0.00 0.00 0.00 25 1004.0
20260510074238 73 147 0.0 0.0 0.00 0.00 0.00 26 1004.0
20260510074146 73 147 0.0 0.0 0.00 0.00 0.00 26 1004.3
20260510074045 73 148 0.0 0.0 0.00 0.00 0.00 26 1004.3
20260510073934 73 225 0.0 0.0 0.00 0.00 0.00 26 1004.3
20260510073830 73 267 0.0 0.0 0.00 0.00 0.00 25 1004.3
20260510073732 73 267 0.0 0.0 0.00 0.00 0.00 25 1004.3
20260510073623 73 267 0.0 0.0 0.00 0.00 0.00 25 1004.3
20260510073532 73 267 0.0 0.0 0.00 0.00 0.00 26 1004.3
20260510073415 73 285 0.0 0.0 0.00 0.00 0.00 26 1004.4
20260510073314 73 322 0.0 1.0 0.00 0.00 0.00 27 1004.4
20260510073213 73 322 0.0 1.0 0.00 0.00 0.00 26 1004.4
20260510073110 73 322 0.0 1.0 0.00 0.00 0.00 26 1004.4
20260510073024 74 322 0.0 1.0 0.00 0.00 0.00 26 1004.5
20260510072913 74 322 0.0 1.0 0.00 0.00 0.00 26 1004.5
20260510072811 74 322 0.0 1.0 0.00 0.00 0.00 24 1004.5
20260510072711 74 323 0.0 1.0 0.00 0.00 0.00 24 1004.9
20260510072558 74 323 0.0 1.0 0.00 0.00 0.00 24 1004.9
20260510072457 74 323 0.0 1.0 0.00 0.00 0.00 24 1004.9
20260510072346 74 323 0.0 1.0 0.00 0.00 0.00 23 1004.9
20260510072240 74 231 0.0 1.0 0.00 0.00 0.00 23 1005.0
20260510072140 74 231 0.0 1.0 0.00 0.00 0.00 22 1005.0
20260510072042 74 231 0.0 1.0 0.00 0.00 0.00 22 1005.0
20260510071932 74 231 0.0 1.0 0.00 0.00 0.00 23 1005.0
20260510071833 75 231 0.0 1.0 0.00 0.00 0.00 22 1005.0
20260510071734 75 231 0.0 2.0 0.00 0.00 0.00 22 1005.0
20260510071631 75 231 0.0 2.0 0.00 0.00 0.00 22 1005.0
20260510071518 75 231 0.0 2.0 0.00 0.00 0.00 22 1005.0
20260510071414 75 231 0.0 2.0 0.00 0.00 0.00 22 1005.0
20260510071253 75 225 0.0 2.0 0.00 0.00 0.00 22 1005.0
20260510071222 74 182 1.0 4.0 0.00 0.00 0.00 22 1005.2
20260510071157 75 256 0.0 2.0 0.00 0.00 0.00 22 1005.4
20260510071036 75 252 1.0 4.0 0.00 0.00 0.00 22 1005.4
20260510070936 74 184 1.0 4.0 0.00 0.00 0.00 22 1005.4
20260510070840 74 180 1.0 4.0 0.00 0.00 0.00 22 1005.4
20260510070743 74 186 1.0 4.0 0.00 0.00 0.00 22 1005.2
20260510070639 74 157 1.0 4.0 0.00 0.00 0.00 22 1005.2
20260510070452 74 226 1.0 4.0 0.00 0.00 0.00 22 1005.2
20260510070356 74 150 1.0 4.0 0.00 0.00 0.00 22 1005.1
20260510070255 74 123 0.0 4.0 0.00 0.00 0.00 23 1005.1
20260510070208 74 115 0.0 4.0 0.00 0.00 0.00 23 1005.1
20260510070054 74 184 0.0 4.0 0.00 0.00 0.00 22 1005.1
20260510065932 73 152 0.0 4.0 0.00 0.00 0.00 24 1005.1
20260510065822 73 227 0.0 4.0 0.00 0.00 0.00 24 1005.0
20260510065732 73 188 0.0 1.0 0.00 0.00 0.00 24 1005.1
20260510065630 73 244 0.0 1.0 0.00 0.00 0.00 24 1005.1
20260510065524 73 244 0.0 1.0 0.00 0.00 0.00 24 1005.0
20260510065415 73 245 0.0 1.0 0.00 0.00 0.00 24 1005.0
20260510065316 73 214 0.0 1.0 0.00 0.00 0.00 24 1005.0
20260510065209 73 136 0.0 1.0 0.00 0.00 0.00 24 1005.0
20260510065109 73 105 0.0 2.0 0.00 0.00 0.00 24 1005.0
20260510064959 72 107 0.0 2.0 0.00 0.00 0.00 24 1004.9
20260510064858 72 86 0.0 2.0 0.00 0.00 0.00 24 1004.9
20260510064752 72 147 0.0 2.0 0.00 0.00 0.00 25 1004.8
20260510064651 72 246 0.0 2.0 0.00 0.00 0.00 26 1004.8
20260510064544 72 246 0.0 2.0 0.00 0.00 0.00 27 1004.8
20260510064435 71 264 0.0 2.0 0.00 0.00 0.00 27 1004.8
20260510064335 72 264 0.0 2.0 0.00 0.00 0.00 27 1004.8
20260510064236 71 273 0.0 2.0 0.00 0.00 0.00 27 1004.7
20260510064128 71 279 0.0 2.0 0.00 0.00 0.00 27 1004.7
20260510064028 71 284 0.0 1.0 0.00 0.00 0.00 27 1004.7
20260510063934 72 155 0.0 1.0 0.00 0.00 0.00 27 1004.7
20260510063826 71 155 0.0 1.0 0.00 0.00 0.00 27 1004.7
20260510063723 71 155 0.0 1.0 0.00 0.00 0.00 26 1004.7
20260510063616 71 126 0.0 1.0 0.00 0.00 0.00 26 1004.7
20260510063517 71 125 0.0 1.0 0.00 0.00 0.00 26 1004.7
20260510063414 71 121 0.0 1.0 0.00 0.00 0.00 27 1004.6
20260510063314 71 121 0.0 0.0 0.00 0.00 0.00 27 1004.6
20260510063214 71 121 0.0 0.0 0.00 0.00 0.00 27 1004.6
20260510063114 71 122 0.0 0.0 0.00 0.00 0.00 27 1004.6
20260510063010 71 113 0.0 0.0 0.00 0.00 0.00 27 1004.6
20260510062912 71 111 0.0 0.0 0.00 0.00 0.00 27 1004.6
20260510062808 71 33 0.0 0.0 0.00 0.00 0.00 27 1004.5
20260510062708 71 32 0.0 0.0 0.00 0.00 0.00 28 1004.4
20260510062606 71 32 0.0 1.0 0.00 0.00 0.00 28 1004.4
20260510062514 71 32 0.0 1.0 0.00 0.00 0.00 28 1004.4
20260510062338 71 32 0.0 1.0 0.00 0.00 0.00 28 1004.4
20260510062242 71 32 0.0 1.0 0.00 0.00 0.00 29 1004.4
20260510062142 71 32 0.0 1.0 0.00 0.00 0.00 26 1004.4
20260510062039 71 126 0.0 1.0 0.00 0.00 0.00 26 1004.4
20260510061939 71 126 0.0 1.0 0.00 0.00 0.00 27 1004.4
20260510061838 71 126 0.0 1.0 0.00 0.00 0.00 27 1004.4
20260510061739 71 126 0.0 1.0 0.00 0.00 0.00 26 1004.4
20260510061634 71 127 0.0 1.0 0.00 0.00 0.00 27 1004.5
20260510061532 71 94 0.0 1.0 0.00 0.00 0.00 27 1004.4
20260510061435 71 94 0.0 1.0 0.00 0.00 0.00 27 1004.4
20260510061319 71 94 0.0 1.0 0.00 0.00 0.00 27 1004.4
20260510061224 71 93 0.0 1.0 0.00 0.00 0.00 27 1004.6
20260510061112 71 92 0.0 1.0 0.00 0.00 0.00 27 1004.6
20260510061008 71 92 0.0 1.0 0.00 0.00 0.00 28 1004.6
20260510060905 71 94 0.0 1.0 0.00 0.00 0.00 27 1004.6
20260510060759 71 98 0.0 1.0 0.00 0.00 0.00 27 1004.6
20260510060652 71 105 0.0 1.0 0.00 0.00 0.00 27 1004.6
20260510060616 71 105 0.0 1.0 0.00 0.00 0.00 27 1004.6
20260510060437 71 105 0.0 1.0 0.00 0.00 0.00 27 1004.6
20260510060338 71 105 0.0 1.0 0.00 0.00 0.00 28 1004.6
20260510060255 71 105 0.0 1.0 0.00 0.00 0.00 28 1004.6
20260510060130 71 113 0.0 1.0 0.00 0.00 0.00 27 1004.6
20260510060030 71 113 0.0 0.0 0.00 0.00 0.00 27 1004.6
20260510055916 71 113 0.0 0.0 0.00 0.00 0.00 27 1004.6
20260510055810 71 113 0.0 1.0 0.00 0.00 0.00 27 1004.6
20260510055717 71 113 0.0 5.0 0.00 0.00 0.00 27 1004.7
20260510055611 71 113 0.0 5.0 0.00 0.00 0.00 27 1004.7
20260510055510 71 113 1.0 5.0 0.00 0.00 0.00 27 1004.7
20260510055412 71 113 1.0 5.0 0.00 0.00 0.00 27 1004.7
20260510055238 71 113 1.0 5.0 0.00 0.00 0.00 27 1004.7
20260510055139 72 113 1.0 5.0 0.00 0.00 0.00 27 1004.7
20260510055039 71 113 1.0 5.0 0.00 0.00 0.00 27 1004.7
20260510054939 71 116 1.0 5.0 0.00 0.00 0.00 27 1004.7
20260510054840 71 86 1.0 5.0 0.00 0.00 0.00 27 1004.7
20260510054735 71 67 1.0 5.0 0.00 0.00 0.00 27 1004.7
20260510054635 71 106 1.0 5.0 0.00 0.00 0.00 27 1004.7
20260510054531 71 95 1.0 5.0 0.00 0.00 0.00 27 1004.7
20260510054428 71 101 1.0 5.0 0.00 0.00 0.00 27 1004.7
20260510054317 71 118 1.0 5.0 0.00 0.00 0.00 27 1004.7
20260510054211 72 111 1.0 5.0 0.00 0.00 0.00 27 1004.4
20260510054115 72 85 1.0 5.0 0.00 0.00 0.00 27 1004.5
20260510054014 72 118 1.0 5.0 0.00 0.00 0.00 27 1004.5
20260510053907 72 110 1.0 5.0 0.00 0.00 0.00 27 1004.5
20260510053801 72 83 1.0 5.0 0.00 0.00 0.00 27 1004.5
20260510053655 72 98 1.0 4.0 0.00 0.00 0.00 27 1004.5
20260510053553 72 82 0.0 3.0 0.00 0.00 0.00 26 1004.5
20260510053455 72 92 0.0 3.0 0.00 0.00 0.00 26 1004.5
20260510053358 72 87 0.0 3.0 0.00 0.00 0.00 26 1004.6
20260510053252 73 82 0.0 3.0 0.00 0.00 0.00 26 1004.6
20260510053146 73 95 0.0 3.0 0.00 0.00 0.00 25 1004.6
20260510053105 73 79 0.0 2.0 0.00 0.00 0.00 25 1004.6
20260510052937 73 111 0.0 1.0 0.00 0.00 0.00 25 1004.6
20260510052842 73 100 0.0 1.0 0.00 0.00 0.00 25 1004.6
20260510052737 73 94 0.0 3.0 0.00 0.00 0.00 25 1004.6
20260510052639 73 109 0.0 3.0 0.00 0.00 0.00 25 1004.5
20260510052540 73 97 0.0 3.0 0.00 0.00 0.00 25 1004.5
20260510052438 73 69 0.0 4.0 0.00 0.00 0.00 25 1004.5
20260510052339 73 274 1.0 4.0 0.00 0.00 0.00 25 1004.5
20260510052237 73 273 1.0 4.0 0.00 0.00 0.00 25 1004.5
20260510052143 73 273 1.0 5.0 0.00 0.00 0.00 24 1004.5
20260510052052 73 273 1.0 5.0 0.00 0.00 0.00 25 1004.5
20260510051934 73 273 1.0 5.0 0.00 0.00 0.00 25 1004.5
20260510051836 73 260 1.0 5.0 0.00 0.00 0.00 25 1004.5
20260510051731 73 246 1.0 5.0 0.00 0.00 0.00 25 1004.5
20260510051635 73 243 2.0 5.0 0.00 0.00 0.00 25 1004.5
20260510051533 73 246 2.0 5.0 0.00 0.00 0.00 25 1004.5
20260510051432 73 264 2.0 5.0 0.00 0.00 0.00 25 1004.5
20260510051331 73 268 2.0 5.0 0.00 0.00 0.00 25 1004.5
20260510051225 73 256 2.0 5.0 0.00 0.00 0.00 25 1005.4
20260510051135 73 252 2.0 5.0 0.00 0.00 0.00 25 1005.4
20260510051010 73 292 2.0 6.0 0.00 0.00 0.00 25 1005.4
20260510050912 74 286 2.0 6.0 0.00 0.00 0.00 25 1005.5
20260510050813 74 292 2.0 6.0 0.00 0.00 0.00 24 1005.5
20260510050715 74 265 3.0 6.0 0.00 0.00 0.00 24 1005.5
20260510050614 74 279 2.0 6.0 0.00 0.00 0.00 24 1005.5
20260510050509 74 280 2.0 6.0 0.00 0.00 0.00 24 1005.5
20260510050410 73 263 2.0 6.0 0.00 0.00 0.00 24 1005.4
20260510050310 73 265 2.0 6.0 0.00 0.00 0.00 24 1005.4
20260510050212 73 262 2.0 6.0 0.00 0.00 0.00 24 1005.4
20260510050111 73 271 2.0 6.0 0.00 0.00 0.00 24 1005.4
20260510045949 73 264 2.0 6.0 0.00 0.00 0.00 24 1005.4
20260510045851 73 290 1.0 6.0 0.00 0.00 0.00 25 1005.4
20260510045739 73 261 1.0 6.0 0.00 0.00 0.00 25 1005.0
20260510045637 73 265 1.0 4.0 0.00 0.00 0.00 25 1005.0
20260510045539 73 260 1.0 4.0 0.00 0.00 0.00 25 1005.0
20260510045509 73 257 2.0 4.0 0.00 0.00 0.00 25 1005.1
20260510045342 74 273 2.0 4.0 0.00 0.00 0.00 25 1005.1
20260510045235 74 274 2.0 4.0 0.00 0.00 0.00 24 1005.1
20260510045119 74 264 2.0 5.0 0.00 0.00 0.00 24 1005.1
20260510045028 74 294 2.0 5.0 0.00 0.00 0.00 24 1005.2
20260510044920 74 282 2.0 5.0 0.00 0.00 0.00 24 1005.2
20260510044827 74 294 1.0 5.0 0.00 0.00 0.00 24 1005.2
20260510044710 75 304 1.0 5.0 0.00 0.00 0.00 23 1005.4
20260510044608 75 296 1.0 5.0 0.00 0.00 0.00 23 1005.4
20260510044508 75 306 1.0 5.0 0.00 0.00 0.00 22 1005.5
20260510044410 75 285 1.0 5.0 0.00 0.00 0.00 22 1005.5
20260510044309 76 273 1.0 5.0 0.00 0.00 0.00 22 1005.6
20260510044215 76 281 1.0 5.0 0.00 0.00 0.00 22 1005.4
20260510044112 76 275 1.0 4.0 0.00 0.00 0.00 22 1005.4
20260510044010 76 279 1.0 5.0 0.00 0.00 0.00 22 1005.5
20260510043912 76 266 1.0 5.0 0.00 0.00 0.00 21 1005.5
20260510043805 76 271 1.0 5.0 0.00 0.00 0.00 21 1005.5
20260510043702 76 285 1.0 5.0 0.00 0.00 0.00 21 1005.5
20260510043603 76 285 1.0 5.0 0.00 0.00 0.00 21 1005.5
20260510043503 76 267 1.0 5.0 0.00 0.00 0.00 21 1005.6
20260510043358 76 252 1.0 5.0 0.00 0.00 0.00 21 1005.6
20260510043240 77 263 1.0 5.0 0.00 0.00 0.00 21 1005.6
20260510043135 77 262 1.0 5.0 0.00 0.00 0.00 21 1005.6
20260510043039 77 266 1.0 5.0 0.00 0.00 0.00 21 1005.6
20260510042938 77 279 1.0 5.0 0.00 0.00 0.00 21 1005.6
20260510042837 77 255 1.0 5.0 0.00 0.00 0.00 20 1005.7
20260510042737 77 271 2.0 5.0 0.00 0.00 0.00 20 1005.7
20260510042635 77 255 2.0 5.0 0.00 0.00 0.00 20 1005.5
20260510042536 78 261 2.0 6.0 0.00 0.00 0.00 20 1005.6
20260510042442 78 284 2.0 6.0 0.00 0.00 0.00 20 1005.6
20260510042337 78 235 3.0 6.0 0.00 0.00 0.00 19 1005.6
20260510042237 78 244 3.0 7.0 0.00 0.00 0.00 19 1005.6
20260510042136 78 265 3.0 7.0 0.00 0.00 0.00 19 1005.7
20260510042033 78 215 3.0 7.0 0.00 0.00 0.00 19 1005.7
20260510041927 78 242 3.0 7.0 0.00 0.00 0.00 19 1005.7
20260510041826 78 224 3.0 7.0 0.00 0.00 0.00 19 1005.7
20260510041713 78 251 3.0 7.0 0.00 0.00 0.00 19 1005.8
20260510041608 78 256 3.0 7.0 0.00 0.00 0.00 19 1005.8
20260510041508 79 234 3.0 7.0 0.00 0.00 0.00 19 1005.8
20260510041408 79 259 3.0 7.0 0.00 0.00 0.00 18 1005.8
20260510041312 79 246 3.0 7.0 0.00 0.00 0.00 18 1005.8
20260510041158 79 244 4.0 7.0 0.00 0.00 0.00 18 1006.1
20260510041055 79 253 4.0 7.0 0.00 0.00 0.00 18 1006.1
20260510040952 79 232 4.0 7.0 0.00 0.00 0.00 18 1006.1
20260510040851 79 264 4.0 8.0 0.00 0.00 0.00 18 1006.1
20260510040753 79 232 4.0 8.0 0.00 0.00 0.00 18 1006.1
20260510040646 79 279 4.0 8.0 0.00 0.00 0.00 18 1006.1
20260510040546 79 265 4.0 9.0 0.00 0.00 0.00 18 1006.1
20260510040443 79 244 4.0 11.0 0.00 0.00 0.00 18 1006.1
20260510040336 79 256 4.0 11.0 0.00 0.00 0.00 18 1006.1
20260510040233 79 244 4.0 11.0 0.00 0.00 0.00 18 1006.1
20260510040135 79 244 4.0 11.0 0.00 0.00 0.00 18 1006.1
20260510040033 79 246 4.0 11.0 0.00 0.00 0.00 18 1006.1
20260510035933 79 241 5.0 12.0 0.00 0.00 0.00 18 1006.1
20260510035838 79 242 5.0 12.0 0.00 0.00 0.00 18 1006.1
20260510035734 79 252 5.0 12.0 0.00 0.00 0.00 18 1006.1
20260510035637 79 265 5.0 12.0 0.00 0.00 0.00 18 1005.9
20260510035537 79 254 5.0 12.0 0.00 0.00 0.00 18 1005.9
20260510035430 79 265 5.0 12.0 0.00 0.00 0.00 18 1005.9
20260510035324 79 274 5.0 12.0 0.00 0.00 0.00 18 1005.9
20260510035222 79 270 5.0 12.0 0.00 0.00 0.00 18 1005.9
20260510035127 79 236 5.0 12.0 0.00 0.00 0.00 18 1006.0
20260510035023 79 229 4.0 12.0 0.00 0.00 0.00 18 1006.0
20260510034923 79 199 4.0 11.0 0.00 0.00 0.00 18 1006.0
20260510034816 79 246 4.0 11.0 0.00 0.00 0.00 18 1006.0
20260510034716 79 273 4.0 11.0 0.00 0.00 0.00 18 1006.0
20260510034617 80 244 4.0 11.0 0.00 0.00 0.00 18 1006.1
20260510034516 80 224 4.0 11.0 0.00 0.00 0.00 18 1006.1
20260510034415 80 248 4.0 11.0 0.00 0.00 0.00 18 1006.1
20260510034310 80 236 4.0 11.0 0.00 0.00 0.00 17 1006.1
20260510034216 80 240 4.0 9.0 0.00 0.00 0.00 17 1005.6
20260510034112 80 246 4.0 9.0 0.00 0.00 0.00 17 1005.6
20260510034011 80 213 5.0 9.0 0.00 0.00 0.00 17 1005.7
20260510033907 80 252 5.0 11.0 0.00 0.00 0.00 17 1005.7
20260510033811 81 243 5.0 11.0 0.00 0.00 0.00 16 1005.8
20260510033710 81 215 5.0 11.0 0.00 0.00 0.00 16 1005.8
20260510033607 81 252 5.0 11.0 0.00 0.00 0.00 16 1005.8
20260510033508 81 234 5.0 11.0 0.00 0.00 0.00 16 1005.9
20260510033358 82 198 6.0 11.0 0.00 0.00 0.00 16 1005.9
20260510033305 82 84 6.0 11.0 0.00 0.00 0.00 15 1006.0
20260510033202 82 182 6.0 11.0 0.00 0.00 0.00 15 1006.0
20260510033056 82 261 7.0 14.0 0.00 0.00 0.00 15 1006.0
20260510033003 82 207 7.0 14.0 0.00 0.00 0.00 15 1006.0
20260510032852 82 194 7.0 14.0 0.00 0.00 0.00 15 1006.1
20260510032748 83 205 7.0 14.0 0.00 0.00 0.00 15 1006.1
20260510032641 83 218 7.0 14.0 0.00 0.00 0.00 14 1005.9
20260510032534 83 256 7.0 14.0 0.00 0.00 0.00 14 1005.9
20260510032438 83 219 7.0 14.0 0.00 0.00 0.00 14 1005.9
20260510032331 82 225 7.0 14.0 0.00 0.00 0.00 15 1005.9
20260510032233 82 222 7.0 14.0 0.00 0.00 0.00 15 1005.8
20260510032134 82 262 7.0 14.0 0.00 0.00 0.00 15 1005.8
20260510032036 82 190 7.0 13.0 0.00 0.00 0.00 15 1005.8
20260510031935 82 206 6.0 13.0 0.00 0.00 0.00 15 1005.8
20260510031820 82 262 6.0 12.0 0.00 0.00 0.00 15 1005.8
20260510031713 82 208 6.0 12.0 0.00 0.00 0.00 15 1005.8
20260510031624 82 252 6.0 12.0 0.00 0.00 0.00 15 1005.8
20260510031520 82 245 6.0 12.0 0.00 0.00 0.00 15 1005.8
20260510031411 82 215 6.0 12.0 0.00 0.00 0.00 15 1005.8
20260510031307 82 211 6.0 12.0 0.00 0.00 0.00 15 1005.8
20260510031209 82 192 6.0 12.0 0.00 0.00 0.00 15 1006.2
20260510031101 82 205 6.0 12.0 0.00 0.00 0.00 15 1006.2
20260510031008 82 209 6.0 12.0 0.00 0.00 0.00 15 1006.2
20260510030904 82 249 6.0 12.0 0.00 0.00 0.00 15 1006.2
20260510030757 82 213 5.0 12.0 0.00 0.00 0.00 15 1006.1
20260510030652 82 202 5.0 12.0 0.00 0.00 0.00 15 1006.1
20260510030557 82 213 5.0 10.0 0.00 0.00 0.00 15 1006.1
20260510030454 82 244 5.0 10.0 0.00 0.00 0.00 16 1006.1
20260510030351 82 238 4.0 10.0 0.00 0.00 0.00 16 1006.1
20260510030242 82 252 4.0 9.0 0.00 0.00 0.00 16 1006.1
20260510030142 82 237 4.0 9.0 0.00 0.00 0.00 16 1006.1
20260510030043 82 193 4.0 9.0 0.00 0.00 0.00 16 1006.1
20260510025940 82 236 4.0 9.0 0.00 0.00 0.00 16 1006.1
20260510025846 82 244 5.0 9.0 0.00 0.00 0.00 16 1006.1
20260510025741 82 212 5.0 9.0 0.00 0.00 0.00 16 1006.1
20260510025637 82 221 5.0 9.0 0.00 0.00 0.00 16 1005.9
20260510025537 82 216 5.0 9.0 0.00 0.00 0.00 15 1005.9
20260510025438 82 209 5.0 9.0 0.00 0.00 0.00 15 1005.9
20260510025333 82 182 4.0 9.0 0.00 0.00 0.00 15 1005.9
20260510025236 82 224 4.0 9.0 0.00 0.00 0.00 15 1005.9
20260510025138 82 231 4.0 9.0 0.00 0.00 0.00 15 1005.9
20260510025043 82 211 4.0 9.0 0.00 0.00 0.00 15 1005.9
20260510024931 82 174 3.0 9.0 0.00 0.00 0.00 15 1006.0
20260510024834 83 219 3.0 9.0 0.00 0.00 0.00 15 1006.0
20260510024738 83 209 2.0 9.0 0.00 0.00 0.00 15 1006.0
20260510024634 83 174 2.0 6.0 0.00 0.00 0.00 16 1006.1
20260510024526 83 196 1.0 6.0 0.00 0.00 0.00 15 1006.0
20260510024427 83 219 1.0 6.0 0.00 0.00 0.00 15 1006.0
20260510024322 83 171 1.0 6.0 0.00 0.00 0.00 15 1006.0
20260510024232 83 184 1.0 5.0 0.00 0.00 0.00 15 1005.8
20260510024131 83 180 1.0 5.0 0.00 0.00 0.00 15 1005.8
20260510024022 83 101 0.0 4.0 0.00 0.00 0.00 15 1005.8
20260510023912 83 161 1.0 4.0 0.00 0.00 0.00 15 1005.8
20260510023814 83 175 1.0 5.0 0.00 0.00 0.00 15 1005.8
20260510023711 83 132 1.0 5.0 0.00 0.00 0.00 15 1005.8
20260510023609 83 161 1.0 5.0 0.00 0.00 0.00 15 1005.8
20260510023510 83 155 1.0 5.0 0.00 0.00 0.00 15 1005.8
20260510023414 83 130 0.0 5.0 0.00 0.00 0.00 15 1005.8
20260510023306 83 149 0.0 5.0 0.00 0.00 0.00 15 1005.8
20260510023201 83 130 0.0 5.0 0.00 0.00 0.00 15 1005.9
20260510023105 83 113 0.0 5.0 0.00 0.00 0.00 16 1005.9
20260510022947 83 140 0.0 5.0 0.00 0.00 0.00 16 1005.9
20260510022844 83 164 0.0 5.0 0.00 0.00 0.00 15 1005.9
20260510022742 83 108 0.0 3.0 0.00 0.00 0.00 15 1005.9
20260510022646 84 197 0.0 3.0 0.00 0.00 0.00 15 1005.6
20260510022539 84 113 0.0 5.0 0.00 0.00 0.00 16 1005.6
20260510022437 84 109 0.0 5.0 0.00 0.00 0.00 16 1005.6
20260510022337 84 117 1.0 5.0 0.00 0.00 0.00 15 1005.6
20260510022242 84 124 1.0 5.0 0.00 0.00 0.00 15 1005.7
20260510022142 84 149 0.0 5.0 0.00 0.00 0.00 15 1005.7
20260510022031 84 133 1.0 5.0 0.00 0.00 0.00 15 1005.7
20260510021938 84 132 1.0 5.0 0.00 0.00 0.00 15 1005.7
20260510021832 84 156 1.0 5.0 0.00 0.00 0.00 15 1005.7
20260510021728 85 160 1.0 5.0 0.00 0.00 0.00 15 1005.8
20260510021621 85 151 1.0 4.0 0.00 0.00 0.00 15 1005.8
20260510021514 85 113 1.0 4.0 0.00 0.00 0.00 15 1005.8
20260510021417 85 96 0.0 4.0 0.00 0.00 0.00 15 1005.8
20260510021310 85 173 0.0 4.0 0.00 0.00 0.00 15 1005.8
20260510021207 85 175 0.0 4.0 0.00 0.00 0.00 15 1006.2
20260510021055 85 113 0.0 4.0 0.00 0.00 0.00 15 1006.4
20260510020954 85 193 0.0 4.0 0.00 0.00 0.00 15 1006.4
20260510020853 85 144 0.0 2.0 0.00 0.00 0.00 15 1006.4
20260510020736 86 115 0.0 2.0 0.00 0.00 0.00 15 1006.4
20260510020637 86 118 0.0 2.0 0.00 0.00 0.00 15 1006.4
20260510020530 86 97 0.0 6.0 0.00 0.00 0.00 15 1006.5
20260510020428 86 148 0.0 6.0 0.00 0.00 0.00 15 1006.5
20260510020321 86 150 1.0 6.0 0.00 0.00 0.00 14 1006.6
20260510020221 87 131 1.0 6.0 0.00 0.00 0.00 15 1006.6
20260510020115 87 103 1.0 6.0 0.00 0.00 0.00 14 1006.6
20260510020013 87 186 2.0 7.0 0.00 0.00 0.00 14 1006.7
20260510015917 87 188 2.0 7.0 0.00 0.00 0.00 14 1006.7
20260510015810 87 166 2.0 7.0 0.00 0.00 0.00 14 1006.7
20260510015746 87 165 3.0 8.0 0.00 0.00 0.00 13 1006.6
20260510015615 87 136 3.0 8.0 0.00 0.00 0.00 13 1006.7
20260510015509 87 143 3.0 8.0 0.00 0.00 0.00 13 1006.7
20260510015409 88 171 3.0 8.0 0.00 0.00 0.00 13 1006.7
20260510015308 88 150 3.0 8.0 0.00 0.00 0.00 13 1006.7
20260510015209 88 180 3.0 8.0 0.00 0.00 0.00 13 1006.7
20260510015106 88 207 3.0 8.0 0.00 0.00 0.00 13 1006.7
20260510015013 88 202 2.0 8.0 0.00 0.00 0.00 13 1006.8
20260510014901 88 180 2.0 8.0 0.00 0.00 0.00 13 1006.8
20260510014751 88 180 2.0 8.0 0.00 0.00 0.00 13 1006.8
20260510014648 88 171 1.0 8.0 0.00 0.00 0.00 13 1006.8
20260510014549 88 168 1.0 8.0 0.00 0.00 0.00 13 1006.8
20260510014442 88 98 1.0 8.0 0.00 0.00 0.00 13 1006.8
20260510014337 88 193 1.0 8.0 0.00 0.00 0.00 13 1006.8
20260510014239 88 173 1.0 6.0 0.00 0.00 0.00 13 1006.8
20260510014144 88 146 2.0 7.0 0.00 0.00 0.00 13 1006.5
20260510014026 88 140 2.0 7.0 0.00 0.00 0.00 13 1006.5
20260510013928 89 120 2.0 7.0 0.00 0.00 0.00 13 1006.5
20260510013830 89 179 3.0 7.0 0.00 0.00 0.00 13 1006.6
20260510013719 89 210 3.0 7.0 0.00 0.00 0.00 13 1006.6
20260510013616 89 223 3.0 7.0 0.00 0.00 0.00 13 1006.6
20260510013521 89 203 3.0 7.0 0.00 0.00 0.00 13 1006.6
20260510013416 89 191 3.0 7.0 0.00 0.00 0.00 13 1006.6
20260510013315 89 64 3.0 7.0 0.00 0.00 0.00 13 1006.7
20260510013211 90 119 2.0 6.0 0.00 0.00 0.00 13 1006.7
20260510013106 90 129 2.0 7.0 0.00 0.00 0.00 13 1006.8
20260510013007 90 123 3.0 7.0 0.00 0.00 0.00 13 1006.8
20260510012912 90 186 2.0 7.0 0.00 0.00 0.00 13 1006.8
20260510012808 90 196 2.0 7.0 0.00 0.00 0.00 13 1006.8
20260510012706 90 191 2.0 7.0 0.00 0.00 0.00 13 1006.6
20260510012608 90 189 2.0 7.0 0.00 0.00 0.00 13 1006.6
20260510012501 90 210 2.0 7.0 0.00 0.00 0.00 13 1006.6
20260510012355 90 215 2.0 7.0 0.00 0.00 0.00 13 1006.6
20260510012257 91 158 2.0 7.0 0.00 0.00 0.00 13 1006.7
20260510012152 91 190 2.0 7.0 0.00 0.00 0.00 13 1006.7
20260510012050 91 202 2.0 7.0 0.00 0.00 0.00 13 1006.7
20260510011949 91 137 2.0 6.0 0.00 0.00 0.00 13 1006.7
20260510011850 91 161 1.0 6.0 0.00 0.00 0.00 13 1006.7
20260510011819 91 196 1.0 6.0 0.00 0.00 0.00 13 1006.7
20260510011639 91 84 1.0 6.0 0.00 0.00 0.00 13 1006.8
20260510011537 91 132 1.0 5.0 0.00 0.00 0.00 13 1006.8
20260510011441 91 149 1.0 5.0 0.00 0.00 0.00 13 1006.8
20260510011342 92 123 2.0 5.0 0.00 0.00 0.00 13 1006.8
20260510011234 92 88 2.0 5.0 0.00 0.00 0.00 13 1006.8
20260510011139 92 198 2.0 6.0 0.00 0.00 0.00 13 1007.5
20260510011025 92 206 2.0 7.0 0.00 0.00 0.00 13 1007.5
20260510010932 92 143 2.0 7.0 0.00 0.00 0.00 13 1007.5
20260510010820 92 144 2.0 7.0 0.00 0.00 0.00 13 1007.5
20260510010720 92 143 2.0 7.0 0.00 0.00 0.00 13 1007.5
20260510010610 92 155 3.0 7.0 0.00 0.00 0.00 13 1007.5
20260510010413 92 156 2.0 7.0 0.00 0.00 0.00 12 1007.5
20260510010306 92 113 2.0 7.0 0.00 0.00 0.00 12 1007.6
20260510010200 92 205 2.0 7.0 0.00 0.00 0.00 12 1007.6
20260510010058 92 162 2.0 6.0 0.00 0.00 0.00 12 1007.6
20260510010001 92 178 2.0 6.0 0.00 0.00 0.00 12 1007.7
20260510005858 93 147 2.0 6.0 0.00 0.00 0.00 12 1007.7
20260510005744 93 116 2.0 6.0 0.00 0.00 0.00 12 1007.7
20260510005640 93 162 2.0 6.0 0.00 0.00 0.00 12 1007.7
20260510005536 93 148 2.0 5.0 0.00 0.00 0.00 12 1007.7
20260510005446 93 128 2.0 5.0 0.00 0.00 0.00 12 1007.7
20260510005335 93 125 2.0 5.0 0.00 0.00 0.00 12 1007.8
20260510005233 93 66 2.0 5.0 0.00 0.00 0.00 11 1007.8
20260510005132 93 117 2.0 5.0 0.00 0.00 0.00 11 1007.8
20260510005022 93 139 2.0 5.0 0.00 0.00 0.00 11 1007.8
20260510004926 93 157 2.0 5.0 0.00 0.00 0.00 11 1007.8
20260510004811 93 111 2.0 5.0 0.00 0.00 0.00 12 1007.8
20260510004707 93 120 2.0 6.0 0.00 0.00 0.00 12 1007.8
20260510004606 93 143 2.0 6.0 0.00 0.00 0.00 11 1007.8
20260510004516 93 46 2.0 6.0 0.00 0.00 0.00 11 1007.8
20260510004359 93 154 2.0 7.0 0.00 0.00 0.00 12 1007.8
20260510004258 93 130 2.0 7.0 0.00 0.00 0.00 12 1007.8
20260510004202 93 142 3.0 8.0 0.00 0.00 0.00 12 1007.7
20260510004058 93 140 3.0 8.0 0.00 0.00 0.00 12 1007.7
20260510003951 93 124 4.0 8.0 0.00 0.00 0.00 11 1007.7
20260510003844 93 184 4.0 8.0 0.00 0.00 0.00 11 1007.7
20260510003748 93 177 4.0 8.0 0.00 0.00 0.00 12 1007.7
20260510003636 93 110 4.0 8.0 0.00 0.00 0.00 11 1007.6
20260510003527 93 130 4.0 8.0 0.00 0.00 0.00 11 1007.6
20260510003420 93 185 4.0 8.0 0.00 0.00 0.00 11 1007.7
20260510003317 93 105 4.0 8.0 0.00 0.00 0.00 11 1007.7
20260510003214 93 74 4.0 8.0 0.00 0.00 0.00 11 1007.7
20260510003108 93 169 4.0 8.0 0.00 0.00 0.00 11 1007.7
20260510003011 94 138 4.0 11.0 0.00 0.00 0.00 11 1007.8
20260510002912 94 210 4.0 11.0 0.00 0.00 0.00 11 1007.8
20260510002808 94 206 4.0 11.0 0.00 0.00 0.00 10 1007.9
20260510002708 94 72 4.0 11.0 0.00 0.00 0.00 10 1008.1
20260510002607 94 178 5.0 11.0 0.00 0.00 0.00 10 1008.1
20260510002507 94 163 5.0 11.0 0.00 0.00 0.00 10 1008.0
20260510002403 94 96 5.0 11.0 0.00 0.00 0.00 10 1008.1
20260510002306 94 178 5.0 11.0 0.00 0.00 0.00 10 1008.0
20260510002200 94 164 5.0 11.0 0.00 0.00 0.00 10 1008.1
20260510002100 94 216 5.0 11.0 0.00 0.00 0.00 10 1008.1
20260510001955 94 72 5.0 10.0 0.00 0.00 0.00 10 1008.0
20260510001844 94 209 5.0 10.0 0.00 0.00 0.00 10 1008.0
20260510001742 94 212 5.0 10.0 0.00 0.00 0.00 10 1008.0
20260510001639 94 126 5.0 10.0 0.00 0.00 0.00 10 1008.1
20260510001532 94 188 5.0 10.0 0.00 0.00 0.00 10 1008.1
20260510001437 94 202 5.0 10.0 0.00 0.00 0.00 10 1008.1
20260510001333 94 132 5.0 10.0 0.00 0.00 0.00 10 1008.0
20260510001233 94 190 5.0 10.0 0.00 0.00 0.00 9 1008.1
20260510001135 94 200 5.0 11.0 0.00 0.00 0.00 9 1008.6
20260510001029 94 166 5.0 11.0 0.00 0.00 0.00 10 1008.7
20260510000926 94 151 5.0 11.0 0.00 0.00 0.00 10 1008.7
20260510000821 94 148 6.0 13.0 0.00 0.00 0.00 10 1008.7
20260510000713 94 211 6.0 13.0 0.00 0.00 0.00 10 1008.7
20260510000616 94 208 6.0 13.0 0.00 0.00 0.00 10 1008.7
20260510000515 94 179 6.0 13.0 0.00 0.00 0.00 9 1008.7
20260510000408 95 180 6.0 13.0 0.00 0.00 0.00 9 1008.7
20260510000312 95 196 6.0 13.0 0.00 0.00 0.00 9 1008.7
20260510000211 95 162 6.0 13.0 0.00 0.00 0.00 9 1008.7
20260510000117 95 215 6.0 13.0 0.00 0.00 0.00 9 1008.7
20260510000017 95 170 5.0 13.0 0.00 0.00 0.00 9 1008.7
20260509235905 95 155 5.0 12.0 0.00 0.00 0.00 9 1008.7
20260509235805 95 169 5.0 12.0 0.00 0.00 0.00 10 1008.8
20260509235711 95 182 5.0 12.0 0.00 0.00 0.00 10 1008.8
20260509235607 95 198 5.0 12.0 0.00 0.00 0.00 10 1008.8
20260509235508 95 171 5.0 10.0 0.00 0.00 0.00 10 1008.8
20260509235406 95 200 5.0 10.0 0.00 0.00 0.00 10 1008.8
20260509235307 95 205 6.0 14.0 0.00 0.00 0.00 9 1008.8
20260509235209 95 215 5.0 14.0 0.00 0.00 0.00 9 1008.8
20260509235059 94 187 5.0 14.0 0.00 0.00 0.00 10 1008.8
20260509234954 94 188 5.0 14.0 0.00 0.00 0.00 10 1008.8
20260509234840 94 236 5.0 14.0 0.00 0.00 0.00 9 1008.8
20260509234742 94 184 6.0 14.0 0.00 0.00 0.00 9 1008.8
20260509234639 95 214 6.0 14.0 0.00 0.00 0.00 9 1008.8
20260509234538 95 195 6.0 14.0 0.00 0.00 0.00 9 1008.8
20260509234434 95 166 6.0 14.0 0.00 0.00 0.00 9 1008.8
20260509234333 95 219 5.0 11.0 0.00 0.00 0.00 9 1008.8
20260509234232 95 173 5.0 11.0 0.00 0.00 0.00 9 1008.9
20260509234133 95 202 5.0 11.0 0.00 0.00 0.00 9 1008.9
20260509234030 95 84 5.0 11.0 0.00 0.00 0.00 9 1008.9
20260509233929 95 191 5.0 11.0 0.00 0.00 0.00 9 1008.9
20260509233828 95 133 5.0 11.0 0.00 0.00 0.00 9 1008.9
20260509233723 95 170 5.0 11.0 0.00 0.00 0.00 9 1008.9
20260509233625 95 155 5.0 10.0 0.00 0.00 0.00 9 1008.9
20260509233527 95 157 5.0 10.0 0.00 0.00 0.00 9 1008.9
20260509233421 95 109 5.0 10.0 0.00 0.00 0.00 10 1008.9
20260509233317 95 194 6.0 10.0 0.00 0.00 0.00 9 1008.9
20260509233208 95 198 6.0 11.0 0.00 0.00 0.00 9 1008.9
20260509233110 95 187 6.0 11.0 0.00 0.00 0.00 9 1008.9
20260509233013 95 126 6.0 11.0 0.00 0.00 0.00 9 1008.9
20260509232914 95 186 6.0 11.0 0.00 0.00 0.00 9 1008.9
20260509232814 95 227 5.0 11.0 0.00 0.00 0.00 9 1008.9
20260509232716 95 216 5.0 11.0 0.00 0.00 0.00 9 1009.2
20260509232613 95 176 5.0 11.0 0.00 0.00 0.00 9 1009.2
20260509232510 95 173 5.0 11.0 0.00 0.00 0.00 9 1009.2
20260509232413 95 185 5.0 11.0 0.00 0.00 0.00 9 1009.2
20260509232312 95 175 5.0 11.0 0.00 0.00 0.00 9 1009.2
20260509232212 95 190 5.0 11.0 0.00 0.00 0.00 9 1009.2
20260509232103 95 208 5.0 11.0 0.00 0.00 0.00 9 1009.2
20260509232001 95 174 5.0 11.0 0.00 0.00 0.00 10 1009.1
20260509231903 95 219 5.0 11.0 0.00 0.00 0.00 9 1009.1
20260509231756 95 236 5.0 11.0 0.00 0.00 0.00 9 1009.1
20260509231654 95 229 5.0 11.0 0.00 0.00 0.00 9 1009.2
20260509231556 95 229 4.0 9.0 0.00 0.00 0.00 9 1009.2
20260509231454 95 211 4.0 9.0 0.00 0.00 0.00 9 1009.2
20260509231351 95 221 4.0 9.0 0.00 0.00 0.00 9 1009.2
20260509231249 95 252 4.0 9.0 0.00 0.00 0.00 9 1009.2
20260509231151 95 163 4.0 9.0 0.00 0.00 0.00 9 1009.1
20260509231040 95 250 3.0 9.0 0.00 0.00 0.00 9 1009.1
20260509230945 95 182 3.0 7.0 0.00 0.00 0.00 9 1009.1
20260509230840 95 213 3.0 7.0 0.00 0.00 0.00 9 1009.1
20260509230740 96 126 3.0 7.0 0.00 0.00 0.00 9 1009.1
20260509230640 96 74 3.0 7.0 0.00 0.00 0.00 10 1009.2
20260509230537 96 82 3.0 8.0 0.00 0.00 0.00 9 1009.1
20260509230434 96 123 4.0 8.0 0.00 0.00 0.00 9 1009.1
20260509230332 95 196 4.0 8.0 0.00 0.00 0.00 9 1009.1
20260509230239 95 215 4.0 8.0 0.00 0.00 0.00 9 1009.1
20260509230124 95 254 5.0 12.0 0.00 0.00 0.00 9 1009.1
20260509230020 95 221 5.0 12.0 0.00 0.00 0.00 9 1009.1
20260509225932 95 213 6.0 12.0 0.00 0.00 0.00 9 1009.1
20260509225821 95 257 6.0 12.0 0.00 0.00 0.00 9 1009.0
20260509225722 95 269 6.0 12.0 0.00 0.00 0.00 9 1009.1
20260509225610 95 196 6.0 12.0 0.00 0.00 0.00 9 1009.1
20260509225507 95 223 6.0 12.0 0.00 0.00 0.00 9 1009.1
20260509225409 95 182 7.0 12.0 0.00 0.00 0.00 9 1009.1
20260509225311 95 225 7.0 12.0 0.00 0.00 0.00 9 1009.1
20260509225213 95 219 6.0 12.0 0.00 0.00 0.00 9 1009.2
20260509225104 95 248 6.0 12.0 0.00 0.00 0.00 9 1009.2
20260509225003 96 212 6.0 12.0 0.00 0.00 0.00 9 1009.2
20260509224902 96 190 6.0 11.0 0.00 0.00 0.00 9 1009.2
20260509224812 95 215 6.0 12.0 0.00 0.00 0.00 9 1009.2
20260509224646 95 190 6.0 12.0 0.00 0.00 0.00 9 1009.2
20260509224546 95 199 6.0 12.0 0.00 0.00 0.00 9 1009.2
20260509224446 95 225 6.0 12.0 0.00 0.00 0.00 9 1009.2
20260509224345 95 205 6.0 12.0 0.00 0.00 0.00 10 1009.1
20260509224244 95 242 6.0 12.0 0.00 0.00 0.00 9 1009.1
20260509224149 95 261 6.0 12.0 0.00 0.00 0.00 9 1009.2
20260509224040 95 290 6.0 12.0 0.00 0.00 0.00 9 1009.2
20260509223944 96 244 6.0 12.0 0.00 0.00 0.00 9 1009.2
20260509223841 96 170 5.0 12.0 0.00 0.00 0.00 9 1009.2
20260509223735 96 128 5.0 10.0 0.00 0.00 0.00 9 1009.3
20260509223639 96 219 5.0 10.0 0.00 0.00 0.00 9 1009.3
20260509223533 96 234 5.0 10.0 0.00 0.00 0.00 9 1009.3
20260509223435 96 242 5.0 10.0 0.00 0.00 0.00 9 1009.3
20260509223326 96 136 4.0 9.0 0.00 0.00 0.00 9 1009.3
20260509223228 96 221 4.0 9.0 0.00 0.00 0.00 10 1009.5
20260509223126 96 252 4.0 9.0 0.00 0.00 0.00 10 1009.3
20260509223025 96 239 4.0 9.0 0.00 0.00 0.00 9 1009.3
20260509222921 96 242 3.0 9.0 0.00 0.00 0.00 9 1009.5
20260509222817 96 286 3.0 9.0 0.00 0.00 0.00 9 1009.5
20260509222719 96 197 3.0 7.0 0.00 0.00 0.00 9 1009.6
20260509222611 96 171 4.0 13.0 0.00 0.00 0.00 9 1009.6
20260509222509 96 221 4.0 13.0 0.00 0.00 0.00 9 1009.6
20260509222414 96 169 4.0 13.0 0.00 0.00 0.00 9 1009.6
20260509222346 96 203 3.0 13.0 0.00 0.00 0.00 9 1009.6
20260509222313 96 203 3.0 13.0 0.00 0.00 0.00 9 1009.6
20260509222209 96 229 3.0 13.0 0.00 0.00 0.00 10 1009.7
20260509222105 96 261 3.0 13.0 0.00 0.00 0.00 10 1009.7
20260509222011 96 218 4.0 13.0 0.00 0.00 0.00 9 1009.6
20260509221909 96 211 4.0 13.0 0.00 0.00 0.00 9 1009.6
20260509221804 96 55 4.0 13.0 0.00 0.00 0.00 9 1009.5
20260509221705 96 145 4.0 13.0 0.00 0.00 0.00 9 1009.6
20260509221554 96 194 4.0 11.0 0.00 0.00 0.00 10 1009.6
20260509221457 96 279 4.0 11.0 0.00 0.00 0.00 10 1009.6
20260509221419 96 294 4.0 11.0 0.00 0.00 0.00 9 1009.6
20260509221239 96 266 4.0 11.0 0.00 0.00 0.00 9 1009.6
20260509221136 96 248 4.0 11.0 0.00 0.00 0.00 9 1009.6
20260509221038 96 275 4.0 11.0 0.00 0.00 0.00 10 1009.6
20260509220939 96 257 4.0 11.0 0.00 0.00 0.00 10 1009.6
20260509220837 96 258 4.0 11.0 0.00 0.00 0.00 10 1009.6
20260509220730 96 284 4.0 9.0 0.00 0.00 0.00 10 1009.6
20260509220635 96 283 4.0 9.0 0.00 0.00 0.00 10 1009.6
20260509220534 96 216 4.0 9.0 0.00 0.00 0.00 10 1009.5
20260509220427 95 178 4.0 9.0 0.00 0.00 0.00 11 1009.5
20260509220329 95 242 5.0 11.0 0.00 0.00 0.00 11 1009.5
20260509220220 95 173 5.0 13.0 0.00 0.00 0.00 10 1009.3
20260509220130 95 246 6.0 13.0 0.00 0.00 0.00 10 1009.3
20260509220027 95 143 7.0 13.0 0.00 0.00 0.00 10 1009.3
20260509215922 95 132 6.0 13.0 0.00 0.00 0.00 10 1009.3
20260509215826 94 192 6.0 13.0 0.00 0.00 0.00 10 1009.2
20260509215717 94 104 6.0 13.0 0.00 0.00 0.00 10 1009.3
20260509215618 94 168 6.0 13.0 0.00 0.00 0.00 10 1009.3
20260509215509 94 132 6.0 13.0 0.00 0.00 0.00 10 1009.3
20260509215415 94 105 6.0 13.0 0.00 0.00 0.00 10 1009.3
20260509215314 94 107 5.0 13.0 0.00 0.00 0.00 10 1009.2
20260509215214 94 146 5.0 13.0 0.00 0.00 0.00 10 1009.3
20260509215108 94 72 5.0 9.0 0.00 0.00 0.00 10 1009.3
20260509215015 94 144 5.0 9.0 0.00 0.00 0.00 11 1009.3
20260509214913 94 131 4.0 9.0 0.00 0.00 0.00 11 1009.3
20260509214810 94 106 4.0 9.0 0.00 0.00 0.00 11 1009.2
20260509214719 94 83 4.0 9.0 0.00 0.00 0.00 11 1009.3
20260509214607 94 86 4.0 9.0 0.00 0.00 0.00 11 1009.3
20260509214512 94 103 5.0 9.0 0.00 0.00 0.00 10 1009.3
20260509214412 94 77 5.0 9.0 0.00 0.00 0.00 10 1009.3
20260509214309 94 89 4.0 9.0 0.00 0.00 0.00 10 1009.3
20260509214206 94 97 4.0 9.0 0.00 0.00 0.00 11 1009.2
20260509214111 94 98 3.0 8.0 0.00 0.00 0.00 11 1009.2
20260509214003 94 149 3.0 8.0 0.00 0.00 0.00 11 1009.2
20260509213900 94 113 3.0 8.0 0.00 0.00 0.00 11 1009.2
20260509213750 94 118 2.0 8.0 0.00 0.00 0.00 10 1009.2
20260509213655 95 101 2.0 8.0 0.00 0.00 0.00 10 1009.3
20260509213552 95 119 2.0 8.0 0.00 0.00 0.00 10 1009.3
20260509213453 95 115 1.0 6.0 0.00 0.00 0.00 10 1009.3
20260509213359 95 134 1.0 6.0 0.00 0.00 0.00 10 1009.3
20260509213242 95 200 1.0 7.0 0.00 0.00 0.00 11 1009.3
20260509213147 95 82 1.0 10.0 0.00 0.00 0.00 11 1009.5
20260509213041 96 84 2.0 10.0 0.00 0.00 0.00 10 1009.5
20260509212940 96 124 3.0 11.0 0.00 0.00 0.00 10 1009.5
20260509212837 96 122 3.0 11.0 0.00 0.00 0.00 11 1009.5
20260509212740 96 142 3.0 11.0 0.00 0.00 0.00 11 1009.5
20260509212637 96 109 3.0 11.0 0.00 0.00 0.00 11 1010.3
20260509212538 96 113 3.0 11.0 0.00 0.00 0.00 10 1010.3
20260509212440 95 200 4.0 11.0 0.00 0.00 0.00 10 1010.3
20260509212341 95 168 4.0 11.0 0.00 0.00 0.00 10 1010.3
20260509212238 95 185 4.0 11.0 0.00 0.00 0.00 10 1010.3
20260509212131 95 192 3.0 11.0 0.00 0.00 0.00 10 1010.3
20260509212026 95 153 3.0 11.0 0.00 0.00 0.00 10 1010.2
20260509211934 95 171 3.0 7.0 0.00 0.00 0.00 10 1010.2
20260509211829 95 156 3.0 7.0 0.00 0.00 0.00 10 1010.2
20260509211728 94 109 3.0 7.0 0.00 0.00 0.00 10 1010.1
20260509211632 94 118 3.0 7.0 0.00 0.00 0.00 11 1010.1
20260509211521 94 192 2.0 7.0 0.00 0.00 0.00 10 1010.0
20260509211425 94 121 2.0 7.0 0.00 0.00 0.00 11 1010.0
20260509211322 94 107 3.0 7.0 0.00 0.00 0.00 11 1010.0
20260509211222 93 192 3.0 7.0 0.00 0.00 0.00 11 1009.9
20260509211124 93 94 3.0 8.0 0.00 0.00 0.00 11 1009.9
20260509211020 93 122 3.0 8.0 0.00 0.00 0.00 11 1009.9
20260509210914 93 78 3.0 8.0 0.00 0.00 0.00 11 1009.9
20260509210811 93 69 3.0 8.0 0.00 0.00 0.00 11 1009.9
20260509210706 93 59 3.0 8.0 0.00 0.00 0.00 11 1009.9
20260509210608 93 11 3.0 8.0 0.00 0.00 0.00 11 1009.9
20260509210457 93 28 4.0 8.0 0.00 0.00 0.00 11 1009.9
20260509210349 94 65 4.0 8.0 0.00 0.00 0.00 11 1010.0
20260509210250 94 92 4.0 8.0 0.00 0.00 0.00 11 1010.0
20260509210149 94 51 3.0 8.0 0.00 0.00 0.00 12 1010.0
20260509210047 94 74 3.0 8.0 0.00 0.00 0.00 12 1010.1
20260509205953 94 61 3.0 9.0 0.00 0.00 0.00 11 1010.1
20260509205841 94 60 3.0 9.0 0.00 0.00 0.00 11 1010.1
20260509205753 94 205 4.0 9.0 0.00 0.00 0.00 10 1010.1
20260509205638 94 202 4.0 9.0 0.00 0.00 0.00 10 1010.2
20260509205538 94 191 4.0 9.0 0.00 0.00 0.00 11 1010.2
20260509205438 94 105 4.0 9.0 0.00 0.00 0.00 11 1010.2
20260509205341 94 98 4.0 9.0 0.00 0.00 0.00 11 1010.2
20260509205236 94 100 4.0 9.0 0.00 0.00 0.00 10 1010.2
20260509205141 94 132 5.0 9.0 0.00 0.00 0.00 10 1010.2
20260509205037 94 98 5.0 9.0 0.00 0.00 0.00 12 1010.2
20260509204943 94 211 5.0 8.0 0.00 0.00 0.00 12 1010.2
20260509204835 94 73 4.0 8.0 0.00 0.00 0.00 12 1010.2
20260509204730 94 71 4.0 8.0 0.00 0.00 0.00 12 1010.2
20260509204636 94 117 3.0 8.0 0.00 0.00 0.00 12 1010.3
20260509204527 94 135 3.0 8.0 0.00 0.00 0.00 11 1010.3
20260509204429 95 77 3.0 8.0 0.00 0.00 0.00 11 1010.3
20260509204332 94 120 2.0 7.0 0.00 0.00 0.00 12 1010.3
20260509204223 94 164 2.0 7.0 0.00 0.00 0.00 11 1010.6
20260509204110 94 211 1.0 7.0 0.00 0.00 0.00 11 1010.6
20260509204014 94 204 1.0 5.0 0.00 0.00 0.00 12 1010.5
20260509203912 93 166 1.0 5.0 0.00 0.00 0.00 13 1010.5
20260509203814 93 76 1.0 5.0 0.00 0.00 0.00 12 1010.3
20260509203717 93 71 2.0 6.0 0.00 0.00 0.00 12 1010.3
20260509203608 93 300 2.0 6.0 0.00 0.00 0.00 12 1010.3
20260509203509 92 289 2.0 6.0 0.00 0.00 0.00 11 1010.2
20260509203409 92 275 2.0 6.0 0.00 0.00 0.00 11 1010.2
20260509203321 92 279 3.0 8.0 0.00 0.00 0.00 11 1010.2
20260509203158 93 284 3.0 8.0 0.00 0.00 0.00 11 1010.3
20260509203057 93 337 3.0 8.0 0.00 0.00 0.00 12 1010.3
20260509202958 93 74 3.0 8.0 0.00 0.00 0.00 12 1010.5
20260509202855 94 74 4.0 9.0 0.00 0.00 0.00 12 1010.5
20260509202759 94 117 3.0 9.0 0.00 0.00 0.00 12 1010.6
20260509202645 94 120 3.0 9.0 0.00 0.00 0.00 12 1010.9
20260509202540 94 154 3.0 9.0 0.00 0.00 0.00 12 1010.9
20260509202442 93 216 3.0 9.0 0.00 0.00 0.00 12 1010.8
20260509202337 93 186 3.0 9.0 0.00 0.00 0.00 12 1010.8
20260509202246 93 99 3.0 9.0 0.00 0.00 0.00 12 1010.7
20260509202137 93 103 3.0 9.0 0.00 0.00 0.00 12 1010.7
20260509202038 93 105 3.0 9.0 0.00 0.00 0.00 12 1010.7
20260509201937 93 184 3.0 9.0 0.00 0.00 0.00 13 1010.7
20260509201842 92 121 3.0 8.0 0.00 0.00 0.00 13 1010.7
20260509201735 92 87 3.0 8.0 0.00 0.00 0.00 13 1010.7
20260509201629 92 68 3.0 8.0 0.00 0.00 0.00 14 1010.7
20260509201525 92 205 3.0 8.0 0.00 0.00 0.00 12 1010.6
20260509201416 92 195 3.0 8.0 0.00 0.00 0.00 13 1010.6
20260509201321 92 143 3.0 8.0 0.00 0.00 0.00 13 1010.6
20260509201219 92 117 3.0 8.0 0.00 0.00 0.00 13 1010.7
20260509201120 92 91 3.0 8.0 0.00 0.00 0.00 13 1010.7
20260509201017 92 283 4.0 8.0 0.00 0.00 0.00 12 1010.7
20260509200918 92 287 4.0 8.0 0.00 0.00 0.00 13 1010.7
20260509200802 92 69 4.0 8.0 0.00 0.00 0.00 13 1010.8
20260509200717 92 55 4.0 8.0 0.00 0.00 0.00 13 1010.8
20260509200610 92 74 4.0 8.0 0.00 0.00 0.00 13 1010.8
20260509200515 92 89 4.0 7.0 0.00 0.00 0.00 13 1010.8
20260509200408 92 117 4.0 7.0 0.00 0.00 0.00 13 1010.8
20260509200309 92 66 4.0 7.0 0.00 0.00 0.00 13 1010.8
20260509200210 92 145 4.0 7.0 0.00 0.00 0.00 13 1010.8
20260509200106 92 107 4.0 7.0 0.00 0.00 0.00 13 1010.8
20260509200005 92 205 4.0 7.0 0.00 0.00 0.00 12 1010.8
20260509195905 92 103 4.0 7.0 0.00 0.00 0.00 12 1010.8
20260509195810 92 66 4.0 7.0 0.00 0.00 0.00 12 1010.8
20260509195651 92 197 4.0 7.0 0.00 0.00 0.00 12 1011.2
20260509195553 92 87 4.0 7.0 0.00 0.00 0.00 12 1011.2
20260509195449 92 105 4.0 7.0 0.00 0.00 0.00 13 1011.1
20260509195353 91 105 4.0 7.0 0.00 0.00 0.00 12 1011.1
20260509195247 91 138 4.0 8.0 0.00 0.00 0.00 12 1011.1
20260509195141 91 130 4.0 8.0 0.00 0.00 0.00 12 1011.1
20260509195038 91 89 5.0 9.0 0.00 0.00 0.00 12 1011.0
20260509194938 91 90 4.0 9.0 0.00 0.00 0.00 12 1011.0
20260509194833 91 78 4.0 9.0 0.00 0.00 0.00 12 1011.0
20260509194732 91 55 4.0 9.0 0.00 0.00 0.00 12 1011.0
20260509194636 91 115 4.0 9.0 0.00 0.00 0.00 13 1011.0
20260509194531 90 143 5.0 9.0 0.00 0.00 0.00 13 1010.9
20260509194430 90 157 5.0 9.0 0.00 0.00 0.00 13 1010.9
20260509194325 90 82 4.0 9.0 0.00 0.00 0.00 13 1010.9
20260509194219 90 88 4.0 9.0 0.00 0.00 0.00 13 1010.6
20260509194117 90 74 4.0 9.0 0.00 0.00 0.00 13 1010.6
20260509194011 90 128 4.0 9.0 0.00 0.00 0.00 13 1010.5
20260509193912 90 88 4.0 9.0 0.00 0.00 0.00 14 1010.6
20260509193802 90 56 4.0 9.0 0.00 0.00 0.00 14 1010.6
20260509193707 91 94 4.0 9.0 0.00 0.00 0.00 14 1010.6
20260509193600 91 78 4.0 8.0 0.00 0.00 0.00 14 1010.7
20260509193502 91 74 4.0 8.0 0.00 0.00 0.00 14 1010.6
20260509193408 91 80 4.0 8.0 0.00 0.00 0.00 13 1010.7
20260509193256 91 102 4.0 8.0 0.00 0.00 0.00 13 1010.7
20260509193156 91 136 4.0 8.0 0.00 0.00 0.00 14 1010.7
20260509193052 92 78 4.0 8.0 0.00 0.00 0.00 13 1010.8
20260509192953 92 90 4.0 10.0 0.00 0.00 0.00 13 1010.9
20260509192855 93 86 3.0 10.0 0.00 0.00 0.00 13 1011.0
20260509192747 93 193 3.0 10.0 0.00 0.00 0.00 14 1011.0
20260509192643 93 134 3.0 10.0 0.00 0.00 0.00 14 1011.3
20260509192545 93 188 3.0 10.0 0.00 0.00 0.00 15 1011.3
20260509192438 92 205 3.0 10.0 0.00 0.00 0.00 14 1011.2
20260509192341 92 215 3.0 10.0 0.00 0.00 0.00 15 1011.3
20260509192238 92 203 3.0 10.0 0.00 0.00 0.00 15 1011.3
20260509192136 92 136 3.0 10.0 0.00 0.00 0.00 16 1011.2
20260509192041 92 110 3.0 10.0 0.00 0.00 0.00 16 1011.2
20260509191939 92 186 3.0 7.0 0.00 0.00 0.00 15 1011.1
20260509191842 91 108 2.0 7.0 0.00 0.00 0.00 16 1011.1
20260509191736 91 183 3.0 7.0 0.00 0.00 0.00 16 1011.0
20260509191638 91 94 3.0 9.0 0.00 0.00 0.00 16 1011.0
20260509191538 91 113 3.0 9.0 0.00 0.00 0.00 16 1011.0
20260509191432 91 145 2.0 9.0 0.00 0.00 0.00 16 1011.0
20260509191331 91 150 2.0 9.0 0.00 0.00 0.00 18 1011.0
20260509191232 91 94 2.0 9.0 0.00 0.00 0.00 18 1011.1
20260509191134 91 89 2.0 9.0 0.00 0.00 0.00 18 1011.1
20260509191035 91 62 2.0 9.0 0.00 0.00 0.00 16 1011.0
20260509190932 91 113 2.0 9.0 0.00 0.00 0.00 16 1011.1
20260509190825 91 115 2.0 9.0 0.00 0.00 0.00 16 1011.1
20260509190728 92 105 2.0 9.0 0.00 0.00 0.00 17 1011.2
20260509190627 92 82 1.0 7.0 0.00 0.00 0.00 17 1011.2
20260509190517 91 164 1.0 7.0 0.00 0.00 0.00 17 1011.2
20260509190416 91 211 2.0 7.0 0.00 0.00 0.00 16 1011.1
20260509190310 91 211 2.0 7.0 0.00 0.00 0.00 16 1011.0
20260509190158 91 194 2.0 8.0 0.00 0.00 0.00 17 1011.0
20260509190055 91 76 2.0 8.0 0.00 0.00 0.00 16 1011.0
20260509185943 91 77 2.0 8.0 0.00 0.00 0.00 16 1011.0
20260509185846 91 80 2.0 8.0 0.00 0.00 0.00 17 1011.0
20260509185737 90 209 2.0 8.0 0.00 0.00 0.00 17 1011.0
20260509185640 90 211 2.0 8.0 0.00 0.00 0.00 17 1011.1
20260509185540 90 209 2.0 8.0 0.00 0.00 0.00 17 1011.1
20260509185439 90 214 2.0 8.0 0.00 0.00 0.00 17 1011.1
20260509185351 90 115 2.0 8.0 0.00 0.00 0.00 17 1011.1
20260509185240 90 140 2.0 8.0 0.00 0.00 0.00 18 1011.1
20260509185138 90 93 2.0 7.0 0.00 0.00 0.00 18 1011.1
20260509185040 90 148 2.0 7.0 0.00 0.00 0.00 17 1011.1
20260509184941 90 162 2.0 7.0 0.00 0.00 0.00 17 1011.1
20260509184837 90 116 2.0 7.0 0.00 0.00 0.00 17 1011.1
20260509184740 90 188 2.0 7.0 0.00 0.00 0.00 17 1011.1
20260509184631 90 192 2.0 7.0 0.00 0.00 0.00 18 1011.1
20260509184532 90 98 2.0 7.0 0.00 0.00 0.00 18 1011.1
20260509184428 90 198 2.0 7.0 0.00 0.00 0.00 17 1011.0
20260509184321 89 221 3.0 7.0 0.00 0.00 0.00 19 1011.0
20260509184225 89 167 3.0 7.0 0.00 0.00 0.00 19 1011.4
20260509184120 89 191 3.0 7.0 0.00 0.00 0.00 19 1011.3
20260509184010 89 132 2.0 7.0 0.00 0.00 0.00 20 1011.3
20260509183913 89 75 2.0 7.0 0.00 0.00 0.00 19 1011.3
20260509183810 89 109 3.0 7.0 0.00 0.00 0.00 18 1011.3
20260509183714 89 63 2.0 7.0 0.00 0.00 0.00 18 1011.4
20260509183606 89 76 2.0 7.0 0.00 0.00 0.00 18 1011.4
20260509183506 89 174 2.0 7.0 0.00 0.00 0.00 18 1011.4
20260509183410 89 178 3.0 8.0 0.00 0.00 0.00 19 1011.4
20260509183302 89 166 2.0 8.0 0.00 0.00 0.00 19 1011.3
20260509183202 89 130 2.0 8.0 0.00 0.00 0.00 21 1011.3
20260509183100 88 89 3.0 8.0 0.00 0.00 0.00 21 1011.2
20260509182955 88 140 3.0 8.0 0.00 0.00 0.00 20 1011.2
20260509182858 88 121 3.0 8.0 0.00 0.00 0.00 19 1011.1
20260509182751 88 92 3.0 8.0 0.00 0.00 0.00 19 1011.1
20260509182648 88 141 3.0 8.0 0.00 0.00 0.00 19 1011.1
20260509182551 88 84 3.0 8.0 0.00 0.00 0.00 20 1011.1
20260509182449 88 100 3.0 8.0 0.00 0.00 0.00 19 1011.2
20260509182348 88 92 2.0 8.0 0.00 0.00 0.00 19 1011.2
20260509182242 88 114 2.0 8.0 0.00 0.00 0.00 20 1011.2
20260509182145 88 78 2.0 8.0 0.00 0.00 0.00 20 1011.2
20260509182042 89 100 2.0 8.0 0.00 0.00 0.00 19 1011.3
20260509181944 89 121 2.0 8.0 0.00 0.00 0.00 19 1011.3
20260509181836 89 165 2.0 8.0 0.00 0.00 0.00 20 1011.3
20260509181745 89 74 2.0 8.0 0.00 0.00 0.00 20 1011.3
20260509181634 89 108 2.0 8.0 0.00 0.00 0.00 20 1011.3
20260509181529 89 130 2.0 8.0 0.00 0.00 0.00 19 1011.3
20260509181427 88 145 3.0 8.0 0.00 0.00 0.00 19 1011.3
20260509181324 89 136 2.0 9.0 0.00 0.00 0.00 19 1011.3
20260509181212 89 105 3.0 9.0 0.00 0.00 0.00 19 1011.8
20260509181111 89 202 2.0 9.0 0.00 0.00 0.00 19 1011.7
20260509181016 89 122 2.0 9.0 0.00 0.00 0.00 20 1011.7
20260509180902 88 237 2.0 9.0 0.00 0.00 0.00 20 1011.7
20260509180759 88 187 2.0 9.0 0.00 0.00 0.00 19 1011.7
20260509180655 88 216 2.0 9.0 0.00 0.00 0.00 19 1011.7
20260509180557 89 84 2.0 9.0 0.00 0.00 0.00 19 1011.7
20260509180448 89 124 2.0 9.0 0.00 0.00 0.00 20 1011.7
20260509180346 88 213 1.0 9.0 0.00 0.00 0.00 20 1011.7
20260509180250 88 130 1.0 8.0 0.00 0.00 0.00 20 1011.7
20260509180142 88 84 1.0 8.0 0.00 0.00 0.00 20 1011.6
20260509180039 88 120 2.0 8.0 0.00 0.00 0.00 20 1011.6
20260509175939 87 196 2.0 8.0 0.00 0.00 0.00 20 1011.4
20260509175838 87 203 3.0 9.0 0.00 0.00 0.00 21 1011.4
20260509175739 87 110 3.0 9.0 0.00 0.00 0.00 22 1011.4
20260509175635 87 207 3.0 9.0 0.00 0.00 0.00 21 1011.6
20260509175524 87 124 3.0 9.0 0.00 0.00 0.00 21 1011.6
20260509175417 86 129 3.0 9.0 0.00 0.00 0.00 21 1011.6
20260509175314 86 59 3.0 9.0 0.00 0.00 0.00 22 1011.6
20260509175209 86 77 3.0 9.0 0.00 0.00 0.00 22 1011.6
20260509175119 86 171 3.0 9.0 0.00 0.00 0.00 21 1011.4
20260509175015 86 97 3.0 9.0 0.00 0.00 0.00 21 1011.6
20260509174909 86 137 3.0 8.0 0.00 0.00 0.00 22 1011.6
20260509174815 86 200 3.0 8.0 0.00 0.00 0.00 22 1011.4
20260509174707 86 204 3.0 8.0 0.00 0.00 0.00 22 1011.4
20260509174559 86 114 3.0 8.0 0.00 0.00 0.00 22 1011.4
20260509174501 86 109 2.0 8.0 0.00 0.00 0.00 22 1011.4
20260509174355 86 217 2.0 8.0 0.00 0.00 0.00 23 1011.4
20260509174247 85 207 3.0 8.0 0.00 0.00 0.00 22 1011.3
20260509174146 86 192 2.0 8.0 0.00 0.00 0.00 22 1011.7
20260509174047 86 108 2.0 8.0 0.00 0.00 0.00 22 1011.7
20260509173943 86 118 2.0 8.0 0.00 0.00 0.00 22 1011.7
20260509173845 85 53 2.0 8.0 0.00 0.00 0.00 22 1011.7
20260509173740 85 309 2.0 8.0 0.00 0.00 0.00 23 1011.7
20260509173640 85 157 2.0 8.0 0.00 0.00 0.00 23 1011.6
20260509173543 85 111 2.0 8.0 0.00 0.00 0.00 23 1011.6
20260509173441 85 163 2.0 8.0 0.00 0.00 0.00 22 1011.6
20260509173333 85 58 2.0 8.0 0.00 0.00 0.00 22 1011.6
20260509173234 85 111 2.0 8.0 0.00 0.00 0.00 23 1011.6
20260509173133 85 186 3.0 8.0 0.00 0.00 0.00 24 1011.6
20260509173104 85 186 2.0 8.0 0.00 0.00 0.00 24 1011.6
20260509172929 85 221 2.0 8.0 0.00 0.00 0.00 24 1011.6
20260509172820 85 190 3.0 7.0 0.00 0.00 0.00 24 1011.4
20260509172716 84 126 3.0 8.0 0.00 0.00 0.00 24 1011.9
20260509172611 84 140 3.0 8.0 0.00 0.00 0.00 23 1011.8
20260509172509 84 113 3.0 8.0 0.00 0.00 0.00 23 1011.7
20260509172410 84 107 3.0 8.0 0.00 0.00 0.00 23 1011.7
20260509172311 84 128 4.0 8.0 0.00 0.00 0.00 23 1011.7
20260509172214 84 72 4.0 8.0 0.00 0.00 0.00 24 1011.8
20260509172108 84 71 4.0 8.0 0.00 0.00 0.00 23 1011.7
20260509172014 84 193 4.0 8.0 0.00 0.00 0.00 23 1011.7
20260509171911 83 170 4.0 8.0 0.00 0.00 0.00 23 1011.6
20260509171748 83 209 4.0 8.0 0.00 0.00 0.00 23 1011.6
20260509171650 83 186 4.0 8.0 0.00 0.00 0.00 23 1011.4
20260509171547 82 44 4.0 8.0 0.00 0.00 0.00 23 1011.4
20260509171440 82 157 4.0 8.0 0.00 0.00 0.00 24 1011.3
20260509171342 82 96 4.0 8.0 0.00 0.00 0.00 24 1011.4
20260509171241 83 67 4.0 8.0 0.00 0.00 0.00 24 1011.4
20260509171140 82 125 4.0 8.0 0.00 0.00 0.00 24 1011.4
20260509171042 82 128 4.0 8.0 0.00 0.00 0.00 24 1011.4
20260509170936 83 92 4.0 8.0 0.00 0.00 0.00 24 1011.4
20260509170826 83 112 4.0 10.0 0.00 0.00 0.00 24 1011.4
20260509170733 83 125 3.0 10.0 0.00 0.00 0.00 23 1011.4
20260509170624 83 161 3.0 10.0 0.00 0.00 0.00 24 1011.4
20260509170518 83 198 3.0 10.0 0.00 0.00 0.00 24 1011.4
20260509170426 82 146 3.0 10.0 0.00 0.00 0.00 24 1011.4
20260509170316 82 122 3.0 10.0 0.00 0.00 0.00 25 1011.3
20260509170219 82 158 3.0 10.0 0.00 0.00 0.00 25 1011.3
20260509170112 82 93 3.0 10.0 0.00 0.00 0.00 24 1011.3
20260509170013 82 138 3.0 10.0 0.00 0.00 0.00 23 1011.3
20260509165909 82 128 3.0 10.0 0.00 0.00 0.00 24 1011.3
20260509165810 82 76 2.0 9.0 0.00 0.00 0.00 24 1011.3
20260509165707 82 210 3.0 9.0 0.00 0.00 0.00 25 1011.4
20260509165606 82 265 3.0 9.0 0.00 0.00 0.00 25 1011.4
20260509165503 81 123 3.0 9.0 0.00 0.00 0.00 25 1011.3
20260509165402 81 159 4.0 9.0 0.00 0.00 0.00 24 1011.3
20260509165306 81 145 4.0 9.0 0.00 0.00 0.00 25 1011.3
20260509165201 81 211 4.0 9.0 0.00 0.00 0.00 24 1011.3
20260509165103 82 117 4.0 9.0 0.00 0.00 0.00 23 1011.4
20260509165006 82 132 3.0 9.0 0.00 0.00 0.00 26 1011.6
20260509164902 82 117 3.0 9.0 0.00 0.00 0.00 26 1011.6
20260509164800 82 102 3.0 9.0 0.00 0.00 0.00 25 1011.6
20260509164701 82 193 3.0 9.0 0.00 0.00 0.00 24 1011.6
20260509164553 82 121 3.0 9.0 0.00 0.00 0.00 24 1011.6
20260509164448 82 188 3.0 9.0 0.00 0.00 0.00 24 1011.6
20260509164345 82 200 3.0 9.0 0.00 0.00 0.00 25 1011.6
20260509164243 82 234 3.0 9.0 0.00 0.00 0.00 25 1011.4
20260509164146 82 155 3.0 10.0 0.00 0.00 0.00 27 1011.8
20260509164041 81 101 3.0 10.0 0.00 0.00 0.00 27 1011.7
20260509163936 81 107 3.0 10.0 0.00 0.00 0.00 27 1011.7
20260509163833 81 208 3.0 10.0 0.00 0.00 0.00 27 1011.6
20260509163733 81 57 3.0 10.0 0.00 0.00 0.00 26 1011.6
20260509163643 80 71 4.0 10.0 0.00 0.00 0.00 26 1011.4
20260509163530 80 159 4.0 10.0 0.00 0.00 0.00 26 1011.4
20260509163430 80 180 3.0 10.0 0.00 0.00 0.00 27 1011.4
20260509163332 80 198 3.0 10.0 0.00 0.00 0.00 27 1011.4
20260509163227 80 117 3.0 10.0 0.00 0.00 0.00 27 1011.3
20260509163128 80 150 2.0 8.0 0.00 0.00 0.00 28 1011.3
20260509163023 80 79 2.0 8.0 0.00 0.00 0.00 28 1011.3
20260509162816 80 128 3.0 8.0 0.00 0.00 0.00 27 1011.3
20260509162734 80 92 2.0 10.0 0.00 0.00 0.00 27 1011.6
20260509162722 80 167 3.0 10.0 0.00 0.00 0.00 27 1011.6
20260509162518 80 136 3.0 10.0 0.00 0.00 0.00 28 1011.6
20260509162417 79 194 3.0 10.0 0.00 0.00 0.00 28 1011.4
20260509162315 79 109 3.0 10.0 0.00 0.00 0.00 28 1011.4
20260509162216 79 170 3.0 10.0 0.00 0.00 0.00 28 1011.4
20260509162112 79 225 3.0 10.0 0.00 0.00 0.00 28 1011.3
20260509162003 79 150 3.0 10.0 0.00 0.00 0.00 29 1011.3
20260509161906 78 83 4.0 10.0 0.00 0.00 0.00 29 1011.2
20260509161803 78 106 4.0 10.0 0.00 0.00 0.00 29 1011.2
20260509161706 78 92 4.0 9.0 0.00 0.00 0.00 28 1011.2
20260509161610 78 90 4.0 9.0 0.00 0.00 0.00 27 1011.1
20260509161457 78 132 4.0 9.0 0.00 0.00 0.00 27 1011.1
20260509161347 78 134 4.0 9.0 0.00 0.00 0.00 28 1011.1
20260509161251 78 132 3.0 9.0 0.00 0.00 0.00 29 1011.2
20260509161137 78 92 3.0 9.0 0.00 0.00 0.00 29 1010.9
20260509161036 78 118 3.0 9.0 0.00 0.00 0.00 29 1010.9
20260509160944 78 106 2.0 9.0 0.00 0.00 0.00 28 1011.0
20260509160835 79 129 2.0 9.0 0.00 0.00 0.00 28 1011.0
20260509160739 79 90 2.0 7.0 0.00 0.00 0.00 28 1011.0
20260509160647 78 153 2.0 7.0 0.00 0.00 0.00 30 1011.0
20260509160537 78 264 2.0 9.0 0.00 0.00 0.00 30 1011.0
20260509160429 78 184 3.0 9.0 0.00 0.00 0.00 30 1010.9
20260509160323 78 218 3.0 9.0 0.00 0.00 0.00 30 1010.8
20260509160217 78 218 3.0 9.0 0.00 0.00 0.00 30 1010.8
20260509160117 78 197 4.0 9.0 0.00 0.00 0.00 30 1010.8
20260509160017 77 201 4.0 9.0 0.00 0.00 0.00 31 1010.8
20260509155910 77 119 4.0 9.0 0.00 0.00 0.00 30 1010.7
20260509155815 77 174 4.0 9.0 0.00 0.00 0.00 31 1010.7
20260509155704 77 211 4.0 9.0 0.00 0.00 0.00 31 1010.9
20260509155558 77 201 3.0 9.0 0.00 0.00 0.00 31 1010.9
20260509155502 77 102 3.0 8.0 0.00 0.00 0.00 31 1010.9
20260509155418 77 75 3.0 8.0 0.00 0.00 0.00 31 1010.9
20260509155306 77 177 3.0 8.0 0.00 0.00 0.00 32 1010.9
20260509155155 76 157 3.0 8.0 0.00 0.00 0.00 31 1010.9
20260509155049 76 167 2.0 8.0 0.00 0.00 0.00 31 1010.9
20260509154944 76 213 2.0 8.0 0.00 0.00 0.00 32 1010.8
20260509154843 76 98 2.0 7.0 0.00 0.00 0.00 33 1010.9
20260509154748 76 84 2.0 7.0 0.00 0.00 0.00 33 1010.8
20260509154648 76 71 2.0 7.0 0.00 0.00 0.00 33 1010.8
20260509154549 76 128 2.0 7.0 0.00 0.00 0.00 33 1010.7
20260509154445 76 204 2.0 7.0 0.00 0.00 0.00 33 1010.7
20260509154340 75 207 2.0 9.0 0.00 0.00 0.00 33 1010.7
20260509154244 75 200 2.0 9.0 0.00 0.00 0.00 33 1010.7
20260509154139 75 81 2.0 9.0 0.00 0.00 0.00 33 1010.8
20260509154041 75 150 2.0 9.0 0.00 0.00 0.00 33 1010.8
20260509153940 75 123 2.0 9.0 0.00 0.00 0.00 33 1010.8
20260509153836 75 296 2.0 9.0 0.00 0.00 0.00 33 1010.8
20260509153728 75 221 2.0 9.0 0.00 0.00 0.00 34 1010.8
20260509153625 75 83 2.0 9.0 0.00 0.00 0.00 34 1010.8
20260509153524 75 145 3.0 9.0 0.00 0.00 0.00 34 1010.8
20260509153421 75 45 2.0 9.0 0.00 0.00 0.00 35 1010.7
20260509153322 75 182 3.0 9.0 0.00 0.00 0.00 35 1010.7
20260509153210 75 229 3.0 9.0 0.00 0.00 0.00 35 1010.7
20260509153114 75 214 3.0 9.0 0.00 0.00 0.00 35 1010.7
20260509153013 74 76 3.0 9.0 0.00 0.00 0.00 35 1010.6
20260509152910 74 208 3.0 9.0 0.00 0.00 0.00 35 1010.6
20260509152802 74 96 3.0 9.0 0.00 0.00 0.00 35 1010.6
20260509152742 74 130 3.0 9.0 0.00 0.00 0.00 35 1010.6
20260509152557 74 193 3.0 9.0 0.00 0.00 0.00 35 1010.6
20260509152459 74 107 3.0 9.0 0.00 0.00 0.00 35 1010.6
20260509152353 74 175 3.0 8.0 0.00 0.00 0.00 35 1010.6
20260509152252 74 162 3.0 8.0 0.00 0.00 0.00 35 1010.6
20260509152145 74 196 2.0 7.0 0.00 0.00 0.00 36 1010.6
20260509152053 74 175 2.0 7.0 0.00 0.00 0.00 36 1010.6
20260509151958 74 141 2.0 7.0 0.00 0.00 0.00 36 1010.6
20260509151845 74 34 2.0 7.0 0.00 0.00 0.00 36 1010.6
20260509151745 74 136 2.0 7.0 0.00 0.00 0.00 36 1010.6
20260509151647 74 203 2.0 7.0 0.00 0.00 0.00 36 1010.6
20260509151541 74 113 2.0 8.0 0.00 0.00 0.00 36 1010.6
20260509151439 74 96 2.0 8.0 0.00 0.00 0.00 37 1010.6
20260509151341 74 160 2.0 8.0 0.00 0.00 0.00 37 1010.6
20260509151237 74 225 2.0 8.0 0.00 0.00 0.00 37 1010.6
20260509151138 73 135 2.0 8.0 0.00 0.00 0.00 37 1010.0
20260509151039 73 200 2.0 8.0 0.00 0.00 0.00 37 1010.0
20260509150942 73 190 2.0 8.0 0.00 0.00 0.00 37 1009.9
20260509150839 73 215 2.0 8.0 0.00 0.00 0.00 37 1009.9
20260509150740 73 202 2.0 8.0 0.00 0.00 0.00 37 1009.9
20260509150638 73 195 2.0 8.0 0.00 0.00 0.00 36 1009.9
20260509150532 73 165 2.0 6.0 0.00 0.00 0.00 37 1009.9
20260509150432 73 115 1.0 6.0 0.00 0.00 0.00 38 1009.9
20260509150331 73 187 1.0 6.0 0.00 0.00 0.00 38 1009.9
20260509150232 73 182 1.0 6.0 0.00 0.00 0.00 38 1009.9
20260509150130 73 116 1.0 6.0 0.00 0.00 0.00 37 1009.9
20260509150023 73 92 1.0 7.0 0.00 0.00 0.00 37 1009.9
20260509145924 73 94 1.0 7.0 0.00 0.00 0.00 37 1009.9
20260509145824 73 226 1.0 7.0 0.00 0.00 0.00 37 1009.9
20260509145730 73 173 1.0 7.0 0.00 0.00 0.00 37 1010.1
20260509145619 72 63 1.0 7.0 0.00 0.00 0.00 37 1010.0
20260509145517 72 111 1.0 7.0 0.00 0.00 0.00 37 1010.0
20260509145409 72 101 1.0 7.0 0.00 0.00 0.00 36 1010.0
20260509145319 72 87 1.0 7.0 0.00 0.00 0.00 36 1010.0
20260509145215 72 204 1.0 7.0 0.00 0.00 0.00 36 1010.0
20260509145116 73 115 1.0 7.0 0.00 0.00 0.00 36 1010.1
20260509145006 73 124 1.0 5.0 0.00 0.00 0.00 36 1010.1
20260509144905 73 127 1.0 5.0 0.00 0.00 0.00 36 1010.1
20260509144804 73 150 1.0 5.0 0.00 0.00 0.00 36 1010.1
20260509144707 73 145 1.0 4.0 0.00 0.00 0.00 36 1010.1
20260509144603 73 274 1.0 4.0 0.00 0.00 0.00 36 1010.1
20260509144502 73 140 1.0 4.0 0.00 0.00 0.00 35 1010.1
20260509144403 73 130 0.0 4.0 0.00 0.00 0.00 35 1010.1
20260509144304 73 122 0.0 4.0 0.00 0.00 0.00 35 1010.1
20260509144157 73 211 0.0 4.0 0.00 0.00 0.00 36 1010.3
20260509144100 73 107 0.0 3.0 0.00 0.00 0.00 36 1010.3